Time,TemperatureF,DewpointF,PressureIn,WindDirection,WindDirectionDegrees,WindSpeedMPH,WindSpeedGustMPH,Humidity,HourlyPrecipIn,Conditions,Clouds,dailyrainin,SoftwareType,DateUTC
2013-11-13 00:00:00,24.2,13.0,30.56,NNW,348,8.0,8.0,62,0.00,,,0.00,Wunderground v.1.15,2013-11-13 05:00:00,
2013-11-13 00:01:00,24.3,13.1,30.56,NW,320,8.0,8.0,62,0.00,,,0.00,Wunderground v.1.15,2013-11-13 05:01:00,
2013-11-13 00:02:00,24.3,13.1,30.56,NE,35,8.0,9.0,62,0.00,,,0.00,Wunderground v.1.15,2013-11-13 05:02:00,
2013-11-13 00:04:00,24.2,13.0,30.56,NNW,332,8.0,9.0,62,0.00,,,0.00,Wunderground v.1.15,2013-11-13 05:04:00,
2013-11-13 00:05:00,24.3,13.1,30.56,NNE,28,8.0,9.0,62,0.00,,,0.00,Wunderground v.1.15,2013-11-13 05:05:00,
2013-11-13 00:06:00,24.2,13.0,30.56,WNW,300,8.0,9.0,62,0.00,,,0.00,Wunderground v.1.15,2013-11-13 05:06:00,
2013-11-13 00:10:00,24.1,13.3,30.56,NNW,342,7.0,7.0,63,0.00,,,0.00,Wunderground v.1.15,2013-11-13 05:10:00,
2013-11-13 00:11:00,24.1,13.3,30.56,NNW,327,7.0,10.0,63,0.00,,,0.00,Wunderground v.1.15,2013-11-13 05:11:00,
2013-11-13 00:12:00,24.1,13.3,30.56,NW,311,7.0,10.0,63,0.00,,,0.00,Wunderground v.1.15,2013-11-13 05:12:00,
2013-11-13 00:14:00,24.1,13.3,30.57,NNW,342,7.0,10.0,63,0.00,,,0.00,Wunderground v.1.15,2013-11-13 05:14:00,
2013-11-13 00:18:00,24.1,13.3,30.57,NW,317,6.0,10.0,63,0.00,,,0.00,Wunderground v.1.15,2013-11-13 05:18:00,
2013-11-13 00:19:00,24.1,13.3,30.57,WNW,290,6.0,10.0,63,0.00,,,0.00,Wunderground v.1.15,2013-11-13 05:19:00,
2013-11-13 00:20:00,24.1,13.3,30.57,West,268,6.0,6.0,63,0.00,,,0.00,Wunderground v.1.15,2013-11-13 05:20:00,
2013-11-13 00:21:00,24.1,13.7,30.57,NNE,30,6.0,6.0,64,0.00,,,0.00,Wunderground v.1.15,2013-11-13 05:21:00,
2013-11-13 00:25:00,24.1,13.7,30.56,WNW,293,6.0,18.0,64,0.00,,,0.00,Wunderground v.1.15,2013-11-13 05:25:00,
2013-11-13 00:26:00,24.1,13.7,30.56,NW,304,7.0,18.0,64,0.00,,,0.00,Wunderground v.1.15,2013-11-13 05:26:00,
2013-11-13 00:27:00,24.1,13.3,30.56,NNW,336,7.0,18.0,63,0.00,,,0.00,Wunderground v.1.15,2013-11-13 05:27:00,
2013-11-13 00:28:00,24.1,13.3,30.56,NW,304,8.0,18.0,63,0.00,,,0.00,Wunderground v.1.15,2013-11-13 05:28:00,
2013-11-13 00:31:00,24.0,13.6,30.56,NW,304,7.0,9.0,64,0.00,,,0.00,Wunderground v.1.15,2013-11-13 05:31:00,
2013-11-13 00:33:00,24.0,13.6,30.56,NW,311,7.0,12.0,64,0.00,,,0.00,Wunderground v.1.15,2013-11-13 05:33:00,
2013-11-13 00:35:00,24.0,13.6,30.56,North,10,7.0,12.0,64,0.00,,,0.00,Wunderground v.1.15,2013-11-13 05:35:00,
2013-11-13 00:36:00,24.0,13.6,30.56,North,360,7.0,12.0,64,0.00,,,0.00,Wunderground v.1.15,2013-11-13 05:36:00,
2013-11-13 00:38:00,24.0,13.6,30.56,North,5,7.0,12.0,64,0.00,,,0.00,Wunderground v.1.15,2013-11-13 05:38:00,
2013-11-13 00:39:00,24.0,13.6,30.56,NW,320,7.0,12.0,64,0.00,,,0.00,Wunderground v.1.15,2013-11-13 05:39:00,
2013-11-13 00:40:00,24.0,13.6,30.56,NW,307,7.0,12.0,64,0.00,,,0.00,Wunderground v.1.15,2013-11-13 05:40:00,
2013-11-13 00:43:00,24.0,13.6,30.56,North,5,8.0,12.0,64,0.00,,,0.00,Wunderground v.1.15,2013-11-13 05:43:00,
2013-11-13 00:44:00,24.0,13.6,30.56,NNW,329,7.0,12.0,64,0.00,,,0.00,Wunderground v.1.15,2013-11-13 05:44:00,
2013-11-13 00:46:00,24.0,13.6,30.56,NNW,347,7.0,12.0,64,0.00,,,0.00,Wunderground v.1.15,2013-11-13 05:46:00,
2013-11-13 00:47:00,24.0,13.6,30.56,NNW,330,8.0,12.0,64,0.00,,,0.00,Wunderground v.1.15,2013-11-13 05:47:00,
2013-11-13 00:48:00,24.0,13.6,30.56,NW,312,8.0,12.0,64,0.00,,,0.00,Wunderground v.1.15,2013-11-13 05:48:00,
2013-11-13 00:49:00,24.0,13.6,30.56,NW,320,8.0,12.0,64,0.00,,,0.00,Wunderground v.1.15,2013-11-13 05:49:00,
2013-11-13 00:50:00,24.0,13.6,30.56,NW,307,7.0,7.0,64,0.00,,,0.00,Wunderground v.1.15,2013-11-13 05:50:00,
2013-11-13 00:52:00,24.0,13.6,30.56,NNW,344,7.0,12.0,64,0.00,,,0.00,Wunderground v.1.15,2013-11-13 05:52:00,
2013-11-13 00:53:00,23.9,13.8,30.56,NE,34,7.0,12.0,65,0.00,,,0.00,Wunderground v.1.15,2013-11-13 05:53:00,
2013-11-13 00:56:00,23.9,13.8,30.56,NW,304,6.0,12.0,65,0.00,,,0.00,Wunderground v.1.15,2013-11-13 05:56:00,
2013-11-13 00:57:00,23.9,13.8,30.56,North,5,5.0,12.0,65,0.00,,,0.00,Wunderground v.1.15,2013-11-13 05:57:00,
2013-11-13 00:59:00,23.8,13.7,30.56,North,351,5.0,12.0,65,0.00,,,0.00,Wunderground v.1.15,2013-11-13 05:59:00,
2013-11-13 01:01:00,23.8,13.7,30.56,North,360,5.0,12.0,65,0.00,,,0.00,Wunderground v.1.15,2013-11-13 06:01:00,
2013-11-13 01:03:00,23.8,13.7,30.55,NW,305,5.0,12.0,65,0.00,,,0.00,Wunderground v.1.15,2013-11-13 06:03:00,
2013-11-13 01:04:00,23.8,13.7,30.55,NNW,335,6.0,12.0,65,0.00,,,0.00,Wunderground v.1.15,2013-11-13 06:04:00,
2013-11-13 01:05:00,23.8,13.7,30.55,WNW,302,6.0,12.0,65,0.00,,,0.00,Wunderground v.1.15,2013-11-13 06:05:00,
2013-11-13 01:07:00,23.8,13.7,30.55,NNW,328,7.0,12.0,65,0.00,,,0.00,Wunderground v.1.15,2013-11-13 06:07:00,
2013-11-13 01:08:00,23.8,13.7,30.55,NW,325,7.0,12.0,65,0.00,,,0.00,Wunderground v.1.15,2013-11-13 06:08:00,
2013-11-13 01:09:00,23.8,13.7,30.55,WNW,301,7.0,12.0,65,0.00,,,0.00,Wunderground v.1.15,2013-11-13 06:09:00,
2013-11-13 01:10:00,23.8,13.7,30.55,NW,311,8.0,8.0,65,0.00,,,0.00,Wunderground v.1.15,2013-11-13 06:10:00,
2013-11-13 01:13:00,23.8,13.7,30.55,NNW,330,8.0,12.0,65,0.00,,,0.00,Wunderground v.1.15,2013-11-13 06:13:00,
2013-11-13 01:14:00,23.8,13.7,30.55,NNW,343,8.0,12.0,65,0.00,,,0.00,Wunderground v.1.15,2013-11-13 06:14:00,
2013-11-13 01:15:00,23.8,13.7,30.55,NW,318,9.0,12.0,65,0.00,,,0.00,Wunderground v.1.15,2013-11-13 06:15:00,
2013-11-13 01:20:00,23.7,14.0,30.55,NNW,331,9.0,9.0,66,0.00,,,0.00,Wunderground v.1.15,2013-11-13 06:20:00,
2013-11-13 01:21:00,23.7,14.0,30.56,NW,317,9.0,12.0,66,0.00,,,0.00,Wunderground v.1.15,2013-11-13 06:21:00,
2013-11-13 01:22:00,23.7,14.0,30.56,NW,307,9.0,12.0,66,0.00,,,0.00,Wunderground v.1.15,2013-11-13 06:22:00,
2013-11-13 01:25:00,23.7,14.0,30.56,NNW,342,8.0,12.0,66,0.00,,,0.00,Wunderground v.1.15,2013-11-13 06:25:00,
2013-11-13 01:26:00,23.7,14.0,30.56,NW,310,8.0,12.0,66,0.00,,,0.00,Wunderground v.1.15,2013-11-13 06:26:00,
2013-11-13 01:27:00,23.7,14.0,30.56,NW,325,8.0,13.0,66,0.00,,,0.00,Wunderground v.1.15,2013-11-13 06:27:00,
2013-11-13 01:30:00,23.7,14.0,30.56,NW,317,9.0,9.0,66,0.00,,,0.00,Wunderground v.1.15,2013-11-13 06:30:00,
2013-11-13 01:32:00,23.7,14.0,30.56,NNW,327,9.0,12.0,66,0.00,,,0.00,Wunderground v.1.15,2013-11-13 06:32:00,
2013-11-13 01:33:00,23.7,14.0,30.56,North,349,9.0,12.0,66,0.00,,,0.00,Wunderground v.1.15,2013-11-13 06:33:00,
2013-11-13 01:35:00,23.7,14.0,30.56,NW,324,8.0,12.0,66,0.00,,,0.00,Wunderground v.1.15,2013-11-13 06:35:00,
2013-11-13 01:36:00,23.7,14.0,30.56,WNW,290,9.0,12.0,66,0.00,,,0.00,Wunderground v.1.15,2013-11-13 06:36:00,
2013-11-13 01:37:00,23.7,14.0,30.56,NNW,329,9.0,15.0,66,0.00,,,0.00,Wunderground v.1.15,2013-11-13 06:37:00,
2013-11-13 01:38:00,23.8,14.1,30.56,NW,325,9.0,15.0,66,0.00,,,0.00,Wunderground v.1.15,2013-11-13 06:38:00,
2013-11-13 01:39:00,23.8,14.1,30.57,North,360,9.0,15.0,66,0.00,,,0.00,Wunderground v.1.15,2013-11-13 06:39:00,
2013-11-13 01:41:00,23.7,14.0,30.56,NW,320,8.0,12.0,66,0.00,,,0.00,Wunderground v.1.15,2013-11-13 06:41:00,
2013-11-13 01:42:00,23.7,14.0,30.57,North,360,9.0,12.0,66,0.00,,,0.00,Wunderground v.1.15,2013-11-13 06:42:00,
2013-11-13 01:44:00,23.8,14.1,30.57,NW,313,9.0,13.0,66,0.00,,,0.00,Wunderground v.1.15,2013-11-13 06:44:00,
2013-11-13 01:45:00,23.7,14.0,30.57,WNW,294,9.0,13.0,66,0.00,,,0.00,Wunderground v.1.15,2013-11-13 06:45:00,
2013-11-13 01:46:00,23.7,14.0,30.56,NW,316,8.0,13.0,66,0.00,,,0.00,Wunderground v.1.15,2013-11-13 06:46:00,
2013-11-13 01:50:00,23.7,14.0,30.57,WNW,286,8.0,8.0,66,0.00,,,0.00,Wunderground v.1.15,2013-11-13 06:50:00,
2013-11-13 01:52:00,23.6,13.9,30.57,North,5,8.0,12.0,66,0.00,,,0.00,Wunderground v.1.15,2013-11-13 06:52:00,
2013-11-13 01:54:00,23.6,13.9,30.57,NNW,331,8.0,12.0,66,0.00,,,0.00,Wunderground v.1.15,2013-11-13 06:54:00,
2013-11-13 01:56:00,23.6,13.9,30.57,NW,313,8.0,12.0,66,0.00,,,0.00,Wunderground v.1.15,2013-11-13 06:56:00,
2013-11-13 01:57:00,23.6,13.9,30.57,NW,313,8.0,12.0,66,0.00,,,0.00,Wunderground v.1.15,2013-11-13 06:57:00,
2013-11-13 01:58:00,23.6,13.9,30.57,NNW,342,8.0,12.0,66,0.00,,,0.00,Wunderground v.1.15,2013-11-13 06:58:00,
2013-11-13 02:01:00,23.6,13.9,30.57,NNW,327,8.0,12.0,66,0.00,,,0.00,Wunderground v.1.15,2013-11-13 07:01:00,
2013-11-13 02:02:00,23.6,13.9,30.57,NW,309,8.0,12.0,66,0.00,,,0.00,Wunderground v.1.15,2013-11-13 07:02:00,
2013-11-13 02:04:00,23.5,14.1,30.57,NNW,331,8.0,12.0,67,0.00,,,0.00,Wunderground v.1.15,2013-11-13 07:04:00,
2013-11-13 02:06:00,23.5,14.1,30.57,NNW,331,7.0,12.0,67,0.00,,,0.00,Wunderground v.1.15,2013-11-13 07:06:00,
2013-11-13 02:07:00,23.4,14.0,30.57,NNW,335,7.0,12.0,67,0.00,,,0.00,Wunderground v.1.15,2013-11-13 07:07:00,
2013-11-13 02:11:00,23.5,14.1,30.57,NW,311,7.0,12.0,67,0.00,,,0.00,Wunderground v.1.15,2013-11-13 07:11:00,
2013-11-13 02:13:00,23.5,14.1,30.57,NNW,331,8.0,12.0,67,0.00,,,0.00,Wunderground v.1.15,2013-11-13 07:13:00,
2013-11-13 02:16:00,23.5,14.1,30.57,NW,322,8.0,12.0,67,0.00,,,0.00,Wunderground v.1.15,2013-11-13 07:16:00,
2013-11-13 02:18:00,23.4,14.0,30.57,NNW,346,8.0,12.0,67,0.00,,,0.00,Wunderground v.1.15,2013-11-13 07:18:00,
2013-11-13 02:19:00,23.4,14.0,30.57,WNW,296,8.0,12.0,67,0.00,,,0.00,Wunderground v.1.15,2013-11-13 07:19:00,
2013-11-13 02:21:00,23.4,14.0,30.57,NNW,337,9.0,12.0,67,0.00,,,0.00,Wunderground v.1.15,2013-11-13 07:21:00,
2013-11-13 02:22:00,23.4,14.0,30.57,NW,311,8.0,12.0,67,0.00,,,0.00,Wunderground v.1.15,2013-11-13 07:22:00,
2013-11-13 02:24:00,23.4,14.0,30.57,NW,313,8.0,12.0,67,0.00,,,0.00,Wunderground v.1.15,2013-11-13 07:24:00,
2013-11-13 02:25:00,23.3,14.0,30.57,NW,323,8.0,12.0,67,0.00,,,0.00,Wunderground v.1.15,2013-11-13 07:25:00,
2013-11-13 02:26:00,23.3,14.0,30.57,NNW,340,8.0,12.0,67,0.00,,,0.00,Wunderground v.1.15,2013-11-13 07:26:00,
2013-11-13 02:29:00,23.4,14.0,30.57,NW,321,8.0,12.0,67,0.00,,,0.00,Wunderground v.1.15,2013-11-13 07:29:00,
2013-11-13 02:30:00,23.4,14.0,30.57,NNW,331,8.0,12.0,67,0.00,,,0.00,Wunderground v.1.15,2013-11-13 07:30:00,
2013-11-13 02:31:00,23.3,14.3,30.57,NW,321,8.0,12.0,68,0.00,,,0.00,Wunderground v.1.15,2013-11-13 07:31:00,
2013-11-13 02:33:00,23.3,14.3,30.58,NNW,342,8.0,12.0,68,0.00,,,0.00,Wunderground v.1.15,2013-11-13 07:33:00,
2013-11-13 02:35:00,23.3,14.3,30.57,WNW,299,8.0,12.0,68,0.00,,,0.00,Wunderground v.1.15,2013-11-13 07:35:00,
2013-11-13 02:38:00,23.3,14.3,30.57,NW,312,7.0,12.0,68,0.00,,,0.00,Wunderground v.1.15,2013-11-13 07:38:00,
2013-11-13 02:39:00,23.2,14.2,30.58,NW,309,7.0,12.0,68,0.00,,,0.00,Wunderground v.1.15,2013-11-13 07:39:00,
2013-11-13 02:40:00,23.2,14.2,30.58,NW,313,7.0,12.0,68,0.00,,,0.00,Wunderground v.1.15,2013-11-13 07:40:00,
2013-11-13 02:42:00,23.2,14.2,30.58,NW,319,7.0,12.0,68,0.00,,,0.00,Wunderground v.1.15,2013-11-13 07:42:00,
2013-11-13 02:43:00,23.2,14.2,30.58,NNW,332,6.0,12.0,68,0.00,,,0.00,Wunderground v.1.15,2013-11-13 07:43:00,
2013-11-13 02:44:00,23.2,14.2,30.58,NW,314,6.0,12.0,68,0.00,,,0.00,Wunderground v.1.15,2013-11-13 07:44:00,
2013-11-13 02:46:00,23.1,14.1,30.58,NW,308,6.0,12.0,68,0.00,,,0.00,Wunderground v.1.15,2013-11-13 07:46:00,
2013-11-13 02:48:00,23.0,14.0,30.58,WNW,297,5.0,12.0,68,0.00,,,0.00,Wunderground v.1.15,2013-11-13 07:48:00,
2013-11-13 02:49:00,23.0,14.0,30.58,NNW,336,5.0,12.0,68,0.00,,,0.00,Wunderground v.1.15,2013-11-13 07:49:00,
2013-11-13 02:51:00,23.0,14.0,30.58,NNW,348,5.0,12.0,68,0.00,,,0.00,Wunderground v.1.15,2013-11-13 07:51:00,
2013-11-13 02:54:00,23.0,14.3,30.58,WNW,288,5.0,12.0,69,0.00,,,0.00,Wunderground v.1.15,2013-11-13 07:54:00,
2013-11-13 02:55:00,23.0,14.3,30.58,NNW,334,5.0,12.0,69,0.00,,,0.00,Wunderground v.1.15,2013-11-13 07:55:00,
2013-11-13 02:56:00,23.0,14.3,30.58,North,351,6.0,12.0,69,0.00,,,0.00,Wunderground v.1.15,2013-11-13 07:56:00,
2013-11-13 03:00:00,23.0,14.3,30.58,NNW,332,6.0,6.0,69,0.00,,,0.00,Wunderground v.1.15,2013-11-13 08:00:00,
2013-11-13 03:01:00,23.0,14.3,30.58,NW,310,6.0,12.0,69,0.00,,,0.00,Wunderground v.1.15,2013-11-13 08:01:00,
2013-11-13 03:02:00,23.0,14.3,30.58,WNW,290,6.0,12.0,69,0.00,,,0.00,Wunderground v.1.15,2013-11-13 08:02:00,
2013-11-13 03:03:00,22.9,14.2,30.58,NW,315,6.0,12.0,69,0.00,,,0.00,Wunderground v.1.15,2013-11-13 08:03:00,
2013-11-13 03:06:00,22.9,14.2,30.58,NNW,340,6.0,12.0,69,0.00,,,0.00,Wunderground v.1.15,2013-11-13 08:06:00,
2013-11-13 03:08:00,22.9,14.2,30.58,NNW,344,5.0,12.0,69,0.00,,,0.00,Wunderground v.1.15,2013-11-13 08:08:00,
2013-11-13 03:09:00,22.8,14.1,30.58,NNW,334,5.0,12.0,69,0.00,,,0.00,Wunderground v.1.15,2013-11-13 08:09:00,
2013-11-13 03:10:00,22.8,14.1,30.59,NNW,329,5.0,12.0,69,0.00,,,0.00,Wunderground v.1.15,2013-11-13 08:10:00,
2013-11-13 03:11:00,22.8,14.1,30.58,NNW,340,5.0,12.0,69,0.00,,,0.00,Wunderground v.1.15,2013-11-13 08:11:00,
2013-11-13 03:13:00,22.9,14.2,30.58,North,355,6.0,12.0,69,0.00,,,0.00,Wunderground v.1.15,2013-11-13 08:13:00,
2013-11-13 03:15:00,23.0,14.3,30.58,North,355,6.0,12.0,69,0.00,,,0.00,Wunderground v.1.15,2013-11-13 08:15:00,
2013-11-13 03:16:00,22.9,14.2,30.58,WNW,299,6.0,12.0,69,0.00,,,0.00,Wunderground v.1.15,2013-11-13 08:16:00,
2013-11-13 03:18:00,22.9,14.2,30.58,NNW,331,7.0,12.0,69,0.00,,,0.00,Wunderground v.1.15,2013-11-13 08:18:00,
2013-11-13 06:17:00,21.4,14.7,30.60,WNW,302,5.0,5.0,75,0.00,,,0.00,Wunderground v.1.15,2013-11-13 11:17:00,
2013-11-13 06:20:00,21.4,14.7,30.60,West,281,5.0,7.0,75,0.00,,,0.00,Wunderground v.1.15,2013-11-13 11:20:00,
2013-11-13 06:22:00,21.4,14.7,30.61,WNW,298,4.0,12.0,75,0.00,,,0.00,Wunderground v.1.15,2013-11-13 11:22:00,
2013-11-13 06:23:00,21.4,14.7,30.61,NW,314,4.0,12.0,75,0.00,,,0.00,Wunderground v.1.15,2013-11-13 11:23:00,
2013-11-13 06:25:00,21.4,14.7,30.61,NW,309,4.0,12.0,75,0.00,,,0.00,Wunderground v.1.15,2013-11-13 11:25:00,
2013-11-13 06:27:00,21.4,14.7,30.61,WNW,301,4.0,12.0,75,0.00,,,0.00,Wunderground v.1.15,2013-11-13 11:27:00,
2013-11-13 06:28:00,21.3,14.6,30.61,WNW,286,4.0,12.0,75,0.00,,,0.00,Wunderground v.1.15,2013-11-13 11:28:00,
2013-11-13 06:30:00,21.3,14.6,30.61,WNW,289,4.0,12.0,75,0.00,,,0.00,Wunderground v.1.15,2013-11-13 11:30:00,
2013-11-13 06:32:00,21.3,14.6,30.61,WNW,287,4.0,12.0,75,0.00,,,0.00,Wunderground v.1.15,2013-11-13 11:32:00,
2013-11-13 06:34:00,21.3,14.6,30.61,WNW,288,4.0,12.0,75,0.00,,,0.00,Wunderground v.1.15,2013-11-13 11:34:00,
2013-11-13 06:35:00,21.3,14.6,30.61,WNW,289,3.0,12.0,75,0.00,,,0.00,Wunderground v.1.15,2013-11-13 11:35:00,
2013-11-13 06:38:00,21.2,14.5,30.62,West,259,3.0,12.0,75,0.00,,,0.00,Wunderground v.1.15,2013-11-13 11:38:00,
2013-11-13 06:40:00,21.2,14.5,30.62,WNW,292,3.0,12.0,75,0.00,,,0.00,Wunderground v.1.15,2013-11-13 11:40:00,
2013-11-13 06:41:00,21.2,14.5,30.61,West,267,4.0,12.0,75,0.00,,,0.00,Wunderground v.1.15,2013-11-13 11:41:00,
2013-11-13 06:42:00,21.3,14.6,30.62,NW,317,4.0,12.0,75,0.00,,,0.00,Wunderground v.1.15,2013-11-13 11:42:00,
2013-11-13 06:46:00,21.2,14.5,30.62,WNW,282,4.0,12.0,75,0.00,,,0.00,Wunderground v.1.15,2013-11-13 11:46:00,
2013-11-13 06:47:00,21.2,14.5,30.62,WNW,283,4.0,4.0,75,0.00,,,0.00,Wunderground v.1.15,2013-11-13 11:47:00,
2013-11-13 06:48:00,21.2,14.5,30.62,NNW,344,4.0,12.0,75,0.00,,,0.00,Wunderground v.1.15,2013-11-13 11:48:00,
2013-11-13 06:49:00,21.2,14.5,30.62,NNW,338,4.0,12.0,75,0.00,,,0.00,Wunderground v.1.15,2013-11-13 11:49:00,
2013-11-13 06:51:00,21.2,14.5,30.62,NNW,338,3.0,12.0,75,0.00,,,0.00,Wunderground v.1.15,2013-11-13 11:51:00,
2013-11-13 06:53:00,21.2,14.5,30.62,NW,325,2.0,12.0,75,0.00,,,0.00,Wunderground v.1.15,2013-11-13 11:53:00,
2013-11-13 06:54:00,21.2,14.5,30.62,NW,317,2.0,12.0,75,0.00,,,0.00,Wunderground v.1.15,2013-11-13 11:54:00,
2013-11-13 06:56:00,21.2,14.5,30.62,NW,317,2.0,12.0,75,0.00,,,0.00,Wunderground v.1.15,2013-11-13 11:56:00,
2013-11-13 06:58:00,21.2,14.5,30.62,NW,321,2.0,12.0,75,0.00,,,0.00,Wunderground v.1.15,2013-11-13 11:58:00,
2013-11-13 07:00:00,21.2,14.5,30.62,NW,321,1.0,1.0,75,0.00,,,0.00,Wunderground v.1.15,2013-11-13 12:00:00,
2013-11-13 07:01:00,21.1,14.4,30.62,NW,321,1.0,12.0,75,0.00,,,0.00,Wunderground v.1.15,2013-11-13 12:01:00,
2013-11-13 07:02:00,21.1,14.4,30.62,NW,321,1.0,12.0,75,0.00,,,0.00,Wunderground v.1.15,2013-11-13 12:02:00,
2013-11-13 07:03:00,21.1,15.0,30.62,NW,312,1.0,12.0,77,0.00,,,0.00,Wunderground v.1.15,2013-11-13 12:03:00,
2013-11-13 07:05:00,21.2,14.8,30.62,NW,312,1.0,12.0,76,0.00,,,0.00,Wunderground v.1.15,2013-11-13 12:05:00,
2013-11-13 07:08:00,21.3,14.9,30.62,North,355,1.0,12.0,76,0.00,,,0.00,Wunderground v.1.15,2013-11-13 12:08:00,
2013-11-13 07:10:00,21.4,14.4,30.62,NW,315,1.0,12.0,74,0.00,,,0.00,Wunderground v.1.15,2013-11-13 12:10:00,
2013-11-13 07:11:00,21.4,14.4,30.62,NW,326,2.0,12.0,74,0.00,,,0.00,Wunderground v.1.15,2013-11-13 12:11:00,
2013-11-13 07:13:00,21.5,14.5,30.62,NW,325,2.0,12.0,74,0.00,,,0.00,Wunderground v.1.15,2013-11-13 12:13:00,
2013-11-13 07:14:00,21.5,14.5,30.62,NW,325,2.0,12.0,74,0.00,,,0.00,Wunderground v.1.15,2013-11-13 12:14:00,
2013-11-13 07:15:00,21.5,14.2,30.62,NW,325,2.0,12.0,73,0.00,,,0.00,Wunderground v.1.15,2013-11-13 12:15:00,
2013-11-13 07:17:00,21.5,14.5,30.63,NW,314,3.0,12.0,74,0.00,,,0.00,Wunderground v.1.15,2013-11-13 12:17:00,
2013-11-13 07:19:00,21.4,14.4,30.63,NW,313,2.0,12.0,74,0.00,,,0.00,Wunderground v.1.15,2013-11-13 12:19:00,
2013-11-13 07:21:00,21.3,14.3,30.63,NW,313,2.0,12.0,74,0.00,,,0.00,Wunderground v.1.15,2013-11-13 12:21:00,
2013-11-13 07:23:00,21.3,14.6,30.63,NW,313,1.0,12.0,75,0.00,,,0.00,Wunderground v.1.15,2013-11-13 12:23:00,
2013-11-13 07:24:00,21.2,14.5,30.63,NW,313,1.0,12.0,75,0.00,,,0.00,Wunderground v.1.15,2013-11-13 12:24:00,
2013-11-13 07:25:00,21.2,14.5,30.63,NW,313,1.0,12.0,75,0.00,,,0.00,Wunderground v.1.15,2013-11-13 12:25:00,
2013-11-13 07:26:00,21.3,15.5,30.63,NW,313,1.0,12.0,78,0.00,,,0.00,Wunderground v.1.15,2013-11-13 12:26:00,
2013-11-13 07:28:00,21.3,14.9,30.63,NW,313,1.0,12.0,76,0.00,,,0.00,Wunderground v.1.15,2013-11-13 12:28:00,
2013-11-13 07:30:00,21.4,14.7,30.63,West,275,1.0,12.0,75,0.00,,,0.00,Wunderground v.1.15,2013-11-13 12:30:00,
2013-11-13 07:31:00,21.5,14.5,30.63,NW,317,1.0,12.0,74,0.00,,,0.00,Wunderground v.1.15,2013-11-13 12:31:00,
2013-11-13 07:32:00,21.6,14.3,30.63,WNW,284,2.0,12.0,73,0.00,,,0.00,Wunderground v.1.15,2013-11-13 12:32:00,
2013-11-13 07:35:00,21.8,14.5,30.63,NW,315,3.0,12.0,73,0.00,,,0.00,Wunderground v.1.15,2013-11-13 12:35:00,
2013-11-13 07:36:00,21.8,14.5,30.63,WNW,303,4.0,12.0,73,0.00,,,0.00,Wunderground v.1.15,2013-11-13 12:36:00,
2013-11-13 07:38:00,21.9,14.6,30.63,North,355,5.0,12.0,73,0.00,,,0.00,Wunderground v.1.15,2013-11-13 12:38:00,
2013-11-13 07:40:00,21.9,14.6,30.63,WNW,288,5.0,12.0,73,0.00,,,0.00,Wunderground v.1.15,2013-11-13 12:40:00,
2013-11-13 07:43:00,22.2,14.2,30.63,WNW,288,6.0,12.0,71,0.00,,,0.00,Wunderground v.1.15,2013-11-13 12:43:00,
2013-11-13 07:46:00,22.6,14.6,30.64,West,281,6.0,12.0,71,0.00,,,0.00,Wunderground v.1.15,2013-11-13 12:46:00,
2013-11-13 07:48:00,22.7,14.7,30.64,WNW,298,6.0,12.0,71,0.00,,,0.00,Wunderground v.1.15,2013-11-13 12:48:00,
2013-11-13 07:49:00,22.7,15.0,30.64,NW,318,6.0,12.0,72,0.00,,,0.00,Wunderground v.1.15,2013-11-13 12:49:00,
2013-11-13 07:50:00,22.7,14.7,30.64,NW,325,6.0,12.0,71,0.00,,,0.00,Wunderground v.1.15,2013-11-13 12:50:00,
2013-11-13 07:51:00,22.8,14.8,30.64,West,275,6.0,12.0,71,0.00,,,0.00,Wunderground v.1.15,2013-11-13 12:51:00,
2013-11-13 07:52:00,22.8,14.8,30.64,West,274,6.0,12.0,71,0.00,,,0.00,Wunderground v.1.15,2013-11-13 12:52:00,
2013-11-13 07:53:00,22.8,14.8,30.64,West,277,6.0,12.0,71,0.00,,,0.00,Wunderground v.1.15,2013-11-13 12:53:00,
2013-11-13 07:54:00,22.9,14.9,30.64,WNW,288,5.0,12.0,71,0.00,,,0.00,Wunderground v.1.15,2013-11-13 12:54:00,
2013-11-13 07:56:00,22.9,14.9,30.64,WNW,290,5.0,12.0,71,0.00,,,0.00,Wunderground v.1.15,2013-11-13 12:56:00,
2013-11-13 07:58:00,23.0,15.0,30.64,NW,309,4.0,12.0,71,0.00,,,0.00,Wunderground v.1.15,2013-11-13 12:58:00,
2013-11-13 07:59:00,23.1,15.1,30.64,NW,309,4.0,12.0,71,0.00,,,0.00,Wunderground v.1.15,2013-11-13 12:59:00,
2013-11-13 08:00:00,23.1,15.1,30.64,NW,309,3.0,3.0,71,0.00,,,0.00,Wunderground v.1.15,2013-11-13 13:00:00,
2013-11-13 08:02:00,23.3,15.3,30.64,West,263,2.0,12.0,71,0.00,,,0.00,Wunderground v.1.15,2013-11-13 13:02:00,
2013-11-13 08:03:00,23.4,15.4,30.64,West,271,2.0,12.0,71,0.00,,,0.00,Wunderground v.1.15,2013-11-13 13:03:00,
2013-11-13 08:04:00,23.4,15.1,30.64,NNW,327,2.0,12.0,70,0.00,,,0.00,Wunderground v.1.15,2013-11-13 13:04:00,
2013-11-13 08:06:00,23.6,14.9,30.65,WSW,247,2.0,12.0,69,0.00,,,0.00,Wunderground v.1.15,2013-11-13 13:06:00,
2013-11-13 08:07:00,23.6,14.9,30.65,WNW,286,2.0,12.0,69,0.00,,,0.00,Wunderground v.1.15,2013-11-13 13:07:00,
2013-11-13 08:08:00,23.6,14.6,30.64,WNW,286,2.0,12.0,68,0.00,,,0.00,Wunderground v.1.15,2013-11-13 13:08:00,
2013-11-13 08:09:00,23.7,14.7,30.65,WNW,286,2.0,12.0,68,0.00,,,0.00,Wunderground v.1.15,2013-11-13 13:09:00,
2013-11-13 08:10:00,23.7,14.7,30.65,North,355,2.0,12.0,68,0.00,,,0.00,Wunderground v.1.15,2013-11-13 13:10:00,
2013-11-13 08:14:00,23.9,15.2,30.65,WNW,300,3.0,12.0,69,0.00,,,0.00,Wunderground v.1.15,2013-11-13 13:14:00,
2013-11-13 08:15:00,24.0,15.6,30.65,WNW,300,3.0,12.0,70,0.00,,,0.00,Wunderground v.1.15,2013-11-13 13:15:00,
2013-11-13 08:17:00,24.2,15.2,30.65,NNW,338,3.0,12.0,68,0.00,,,0.00,Wunderground v.1.15,2013-11-13 13:17:00,
2013-11-13 08:19:00,24.3,14.6,30.65,NW,311,4.0,12.0,66,0.00,,,0.00,Wunderground v.1.15,2013-11-13 13:19:00,
2013-11-13 08:20:00,24.4,14.3,30.65,WNW,300,4.0,12.0,65,0.00,,,0.00,Wunderground v.1.15,2013-11-13 13:20:00,
2013-11-13 08:23:00,24.5,14.4,30.65,NW,313,4.0,12.0,65,0.00,,,0.00,Wunderground v.1.15,2013-11-13 13:23:00,
2013-11-13 08:24:00,24.6,14.5,30.65,NW,313,5.0,12.0,65,0.00,,,0.00,Wunderground v.1.15,2013-11-13 13:24:00,
2013-11-13 08:25:00,24.7,14.6,30.65,WNW,285,5.0,12.0,65,0.00,,,0.00,Wunderground v.1.15,2013-11-13 13:25:00,
2013-11-13 08:26:00,24.7,14.2,30.65,WNW,292,6.0,12.0,64,0.00,,,0.00,Wunderground v.1.15,2013-11-13 13:26:00,
2013-11-13 08:28:00,24.8,14.7,30.65,NW,322,5.0,12.0,65,0.00,,,0.00,Wunderground v.1.15,2013-11-13 13:28:00,
2013-11-13 08:30:00,25.0,14.5,30.66,WNW,296,4.0,12.0,64,0.00,,,0.00,Wunderground v.1.15,2013-11-13 13:30:00,
2013-11-13 08:31:00,25.1,14.6,30.66,NW,319,4.0,12.0,64,0.00,,,0.00,Wunderground v.1.15,2013-11-13 13:31:00,
2013-11-13 08:32:00,25.1,14.6,30.65,NW,315,4.0,12.0,64,0.00,,,0.00,Wunderground v.1.15,2013-11-13 13:32:00,
2013-11-13 08:34:00,25.3,14.8,30.66,North,5,4.0,12.0,64,0.00,,,0.00,Wunderground v.1.15,2013-11-13 13:34:00,
2013-11-13 08:35:00,25.3,14.8,30.66,WNW,302,4.0,12.0,64,0.00,,,0.00,Wunderground v.1.15,2013-11-13 13:35:00,
2013-11-13 08:36:00,25.4,14.9,30.66,NW,304,4.0,12.0,64,0.00,,,0.00,Wunderground v.1.15,2013-11-13 13:36:00,
2013-11-13 08:37:00,25.4,14.9,30.66,NW,306,5.0,12.0,64,0.00,,,0.00,Wunderground v.1.15,2013-11-13 13:37:00,
2013-11-13 08:38:00,25.4,14.9,30.66,NW,316,5.0,12.0,64,0.00,,,0.00,Wunderground v.1.15,2013-11-13 13:38:00,
2013-11-13 08:41:00,25.6,14.7,30.66,NW,317,5.0,12.0,63,0.00,,,0.00,Wunderground v.1.15,2013-11-13 13:41:00,
2013-11-13 08:42:00,25.6,14.7,30.66,NW,315,5.0,12.0,63,0.00,,,0.00,Wunderground v.1.15,2013-11-13 13:42:00,
2013-11-13 08:44:00,25.7,14.8,30.66,NNW,334,5.0,12.0,63,0.00,,,0.00,Wunderground v.1.15,2013-11-13 13:44:00,
2013-11-13 08:46:00,26.0,15.1,30.66,North,349,5.0,12.0,63,0.00,,,0.00,Wunderground v.1.15,2013-11-13 13:46:00,
2013-11-13 08:49:00,26.0,14.4,30.66,North,5,6.0,12.0,61,0.00,,,0.00,Wunderground v.1.15,2013-11-13 13:49:00,
2013-11-13 08:50:00,26.0,14.8,30.66,NNW,339,6.0,12.0,62,0.00,,,0.00,Wunderground v.1.15,2013-11-13 13:50:00,
2013-11-13 08:51:00,26.0,14.4,30.66,NNW,341,6.0,12.0,61,0.00,,,0.00,Wunderground v.1.15,2013-11-13 13:51:00,
2013-11-13 08:52:00,26.0,14.4,30.66,NW,314,7.0,12.0,61,0.00,,,0.00,Wunderground v.1.15,2013-11-13 13:52:00,
2013-11-13 08:54:00,26.1,14.5,30.67,NW,315,7.0,12.0,61,0.00,,,0.00,Wunderground v.1.15,2013-11-13 13:54:00,
2013-11-13 08:56:00,26.2,14.6,30.67,WNW,299,8.0,12.0,61,0.00,,,0.00,Wunderground v.1.15,2013-11-13 13:56:00,
2013-11-13 08:57:00,26.2,14.6,30.66,NW,325,8.0,12.0,61,0.00,,,0.00,Wunderground v.1.15,2013-11-13 13:57:00,
2013-11-13 08:58:00,26.3,15.0,30.67,NNW,344,7.0,12.0,62,0.00,,,0.00,Wunderground v.1.15,2013-11-13 13:58:00,
2013-11-13 09:01:00,26.4,14.0,30.67,WNW,290,8.0,12.0,59,0.00,,,0.00,Wunderground v.1.15,2013-11-13 14:01:00,
2013-11-13 09:02:00,26.4,14.0,30.67,WNW,293,8.0,12.0,59,0.00,,,0.00,Wunderground v.1.15,2013-11-13 14:02:00,
2013-11-13 09:03:00,26.4,14.0,30.67,WSW,242,8.0,12.0,59,0.00,,,0.00,Wunderground v.1.15,2013-11-13 14:03:00,
2013-11-13 09:04:00,26.5,14.5,30.67,North,355,8.0,12.0,60,0.00,,,0.00,Wunderground v.1.15,2013-11-13 14:04:00,
2013-11-13 09:05:00,26.6,14.6,30.67,NNE,21,7.0,12.0,60,0.00,,,0.00,Wunderground v.1.15,2013-11-13 14:05:00,
2013-11-13 09:09:00,26.8,15.1,30.67,NW,325,8.0,12.0,61,0.00,,,0.00,Wunderground v.1.15,2013-11-13 14:09:00,
2013-11-13 09:10:00,26.9,14.9,30.67,North,5,7.0,7.0,60,0.00,,,0.00,Wunderground v.1.15,2013-11-13 14:10:00,
2013-11-13 09:11:00,26.9,14.9,30.67,NNE,22,7.0,12.0,60,0.00,,,0.00,Wunderground v.1.15,2013-11-13 14:11:00,
2013-11-13 09:13:00,27.1,15.0,30.67,NW,316,6.0,12.0,60,0.00,,,0.00,Wunderground v.1.15,2013-11-13 14:13:00,
2013-11-13 09:16:00,27.3,14.8,30.67,NW,321,6.0,12.0,59,0.00,,,0.00,Wunderground v.1.15,2013-11-13 14:16:00,
2013-11-13 09:18:00,27.4,14.9,30.67,WNW,301,6.0,12.0,59,0.00,,,0.00,Wunderground v.1.15,2013-11-13 14:18:00,
2013-11-13 09:21:00,27.5,14.6,30.66,WNW,288,6.0,10.0,58,0.00,,,0.00,Wunderground v.1.15,2013-11-13 14:21:00,
2013-11-13 09:22:00,27.5,14.6,30.67,NW,325,6.0,12.0,58,0.00,,,0.00,Wunderground v.1.15,2013-11-13 14:22:00,
2013-11-13 09:23:00,27.5,14.6,30.67,NW,304,7.0,12.0,58,0.00,,,0.00,Wunderground v.1.15,2013-11-13 14:23:00,
2013-11-13 09:25:00,27.4,14.1,30.67,NNW,340,8.0,12.0,57,0.00,,,0.00,Wunderground v.1.15,2013-11-13 14:25:00,
2013-11-13 09:27:00,27.4,14.5,30.67,NW,314,7.0,12.0,58,0.00,,,0.00,Wunderground v.1.15,2013-11-13 14:27:00,
2013-11-13 09:28:00,27.5,14.6,30.67,NW,317,7.0,12.0,58,0.00,,,0.00,Wunderground v.1.15,2013-11-13 14:28:00,
2013-11-13 09:30:00,27.6,14.3,30.67,NNW,342,7.0,12.0,57,0.00,,,0.00,Wunderground v.1.15,2013-11-13 14:30:00,
2013-11-13 09:32:00,27.7,14.4,30.67,WNW,301,8.0,12.0,57,0.00,,,0.00,Wunderground v.1.15,2013-11-13 14:32:00,
2013-11-13 09:33:00,27.8,14.5,30.67,WNW,290,7.0,12.0,57,0.00,,,0.00,Wunderground v.1.15,2013-11-13 14:33:00,
2013-11-13 09:34:00,27.9,14.2,30.67,West,276,7.0,12.0,56,0.00,,,0.00,Wunderground v.1.15,2013-11-13 14:34:00,
2013-11-13 09:36:00,28.0,14.7,30.67,WNW,284,6.0,12.0,57,0.00,,,0.00,Wunderground v.1.15,2013-11-13 14:36:00,
2013-11-13 09:39:00,28.3,15.0,30.67,NW,313,6.0,12.0,57,0.00,,,0.00,Wunderground v.1.15,2013-11-13 14:39:00,
2013-11-13 09:40:00,28.4,14.7,30.67,North,355,6.0,12.0,56,0.00,,,0.00,Wunderground v.1.15,2013-11-13 14:40:00,
2013-11-13 09:41:00,28.5,14.8,30.67,NW,311,5.0,12.0,56,0.00,,,0.00,Wunderground v.1.15,2013-11-13 14:41:00,
2013-11-13 09:43:00,28.6,14.5,30.67,WNW,294,5.0,12.0,55,0.00,,,0.00,Wunderground v.1.15,2013-11-13 14:43:00,
2013-11-13 09:44:00,28.7,14.6,30.67,WNW,291,5.0,12.0,55,0.00,,,0.00,Wunderground v.1.15,2013-11-13 14:44:00,
2013-11-13 09:45:00,28.8,14.6,30.67,NNW,340,6.0,12.0,55,0.00,,,0.00,Wunderground v.1.15,2013-11-13 14:45:00,
2013-11-13 09:46:00,28.8,14.2,30.67,NW,306,6.0,12.0,54,0.00,,,0.00,Wunderground v.1.15,2013-11-13 14:46:00,
2013-11-13 09:47:00,28.9,14.3,30.67,NNW,334,7.0,12.0,54,0.00,,,0.00,Wunderground v.1.15,2013-11-13 14:47:00,
2013-11-13 09:48:00,28.9,13.9,30.67,WNW,298,7.0,12.0,53,0.00,,,0.00,Wunderground v.1.15,2013-11-13 14:48:00,
2013-11-13 09:51:00,28.9,14.3,30.67,NNW,344,8.0,12.0,54,0.00,,,0.00,Wunderground v.1.15,2013-11-13 14:51:00,
2013-11-13 09:52:00,29.0,14.0,30.67,NNW,331,8.0,12.0,53,0.00,,,0.00,Wunderground v.1.15,2013-11-13 14:52:00,
2013-11-13 09:53:00,29.1,14.1,30.67,NNW,333,7.0,12.0,53,0.00,,,0.00,Wunderground v.1.15,2013-11-13 14:53:00,
2013-11-13 09:54:00,29.2,14.2,30.67,WNW,288,7.0,12.0,53,0.00,,,0.00,Wunderground v.1.15,2013-11-13 14:54:00,
2013-11-13 09:55:00,29.3,14.7,30.67,WNW,297,7.0,12.0,54,0.00,,,0.00,Wunderground v.1.15,2013-11-13 14:55:00,
2013-11-13 09:57:00,29.5,14.9,30.67,West,271,7.0,12.0,54,0.00,,,0.00,Wunderground v.1.15,2013-11-13 14:57:00,
2013-11-13 09:59:00,29.6,15.0,30.67,NW,317,6.0,12.0,54,0.00,,,0.00,Wunderground v.1.15,2013-11-13 14:59:00,
2013-11-13 10:03:00,29.9,14.4,30.67,West,272,5.0,12.0,52,0.00,,,0.00,Wunderground v.1.15,2013-11-13 15:03:00,
2013-11-13 10:05:00,29.9,14.8,30.67,NW,306,6.0,12.0,53,0.00,,,0.00,Wunderground v.1.15,2013-11-13 15:05:00,
2013-11-13 10:06:00,30.1,15.0,30.67,NNW,346,6.0,12.0,53,0.00,,,0.00,Wunderground v.1.15,2013-11-13 15:06:00,
2013-11-13 10:07:00,30.2,15.1,30.67,NNW,340,6.0,12.0,53,0.00,,,0.00,Wunderground v.1.15,2013-11-13 15:07:00,
2013-11-13 10:10:00,30.6,15.5,30.68,WNW,302,6.0,6.0,53,0.00,,,0.00,Wunderground v.1.15,2013-11-13 15:10:00,
2013-11-13 10:12:00,30.9,15.8,30.68,WNW,294,6.0,12.0,53,0.00,,,0.00,Wunderground v.1.15,2013-11-13 15:12:00,
2013-11-13 10:13:00,30.8,15.2,30.68,West,279,6.0,12.0,52,0.00,,,0.00,Wunderground v.1.15,2013-11-13 15:13:00,
2013-11-13 10:15:00,30.7,15.1,30.68,WNW,303,6.0,12.0,52,0.00,,,0.00,Wunderground v.1.15,2013-11-13 15:15:00,
2013-11-13 10:17:00,30.8,15.2,30.68,NW,312,6.0,12.0,52,0.00,,,0.00,Wunderground v.1.15,2013-11-13 15:17:00,
2013-11-13 10:19:00,30.8,14.8,30.68,NNW,342,6.0,12.0,51,0.00,,,0.00,Wunderground v.1.15,2013-11-13 15:19:00,
2013-11-13 10:22:00,31.2,15.2,30.67,NW,308,6.0,12.0,51,0.00,,,0.00,Wunderground v.1.15,2013-11-13 15:22:00,
2013-11-13 10:24:00,31.2,15.2,30.67,WNW,303,6.0,12.0,51,0.00,,,0.00,Wunderground v.1.15,2013-11-13 15:24:00,
2013-11-13 10:28:00,31.3,15.2,30.67,NW,309,6.0,12.0,51,0.00,,,0.00,Wunderground v.1.15,2013-11-13 15:28:00,
2013-11-13 10:29:00,31.3,15.2,30.67,NW,306,6.0,12.0,51,0.00,,,0.00,Wunderground v.1.15,2013-11-13 15:29:00,
2013-11-13 10:31:00,31.2,15.2,30.68,West,277,6.0,12.0,51,0.00,,,0.00,Wunderground v.1.15,2013-11-13 15:31:00,
2013-11-13 10:33:00,31.2,15.2,30.67,West,270,6.0,12.0,51,0.00,,,0.00,Wunderground v.1.15,2013-11-13 15:33:00,
2013-11-13 10:34:00,31.3,15.7,30.67,NW,314,6.0,12.0,52,0.00,,,0.00,Wunderground v.1.15,2013-11-13 15:34:00,
2013-11-13 10:36:00,31.5,15.9,30.68,WNW,300,6.0,12.0,52,0.00,,,0.00,Wunderground v.1.15,2013-11-13 15:36:00,
2013-11-13 10:39:00,31.7,15.6,30.68,West,275,5.0,12.0,51,0.00,,,0.00,Wunderground v.1.15,2013-11-13 15:39:00,
2013-11-13 10:40:00,31.8,15.3,30.68,West,263,5.0,12.0,50,0.00,,,0.00,Wunderground v.1.15,2013-11-13 15:40:00,
2013-11-13 10:41:00,31.9,15.3,30.68,WNW,300,4.0,12.0,50,0.00,,,0.00,Wunderground v.1.15,2013-11-13 15:41:00,
2013-11-13 10:42:00,32.0,15.0,30.68,WNW,301,5.0,12.0,49,0.00,,,0.00,Wunderground v.1.15,2013-11-13 15:42:00,
2013-11-13 10:45:00,32.1,14.6,30.68,WNW,299,5.0,12.0,48,0.00,,,0.00,Wunderground v.1.15,2013-11-13 15:45:00,
2013-11-13 10:46:00,32.2,14.7,30.68,NW,310,5.0,12.0,48,0.00,,,0.00,Wunderground v.1.15,2013-11-13 15:46:00,
2013-11-13 10:47:00,32.3,15.3,30.68,NW,305,5.0,12.0,49,0.00,,,0.00,Wunderground v.1.15,2013-11-13 15:47:00,
2013-11-13 10:51:00,32.7,15.1,30.68,WSW,250,6.0,12.0,48,0.00,,,0.00,Wunderground v.1.15,2013-11-13 15:51:00,
2013-11-13 10:52:00,32.7,15.1,30.68,NW,316,6.0,12.0,48,0.00,,,0.00,Wunderground v.1.15,2013-11-13 15:52:00,
2013-11-13 10:53:00,32.7,14.7,30.68,NNW,336,6.0,12.0,47,0.00,,,0.00,Wunderground v.1.15,2013-11-13 15:53:00,
2013-11-13 10:55:00,32.8,14.8,30.68,NW,311,5.0,12.0,47,0.00,,,0.00,Wunderground v.1.15,2013-11-13 15:55:00,
2013-11-13 10:58:00,33.2,15.1,30.68,West,275,6.0,12.0,47,0.00,,,0.00,Wunderground v.1.15,2013-11-13 15:58:00,
2013-11-13 11:00:00,33.3,15.7,30.68,NNW,333,6.0,6.0,48,0.00,,,0.00,Wunderground v.1.15,2013-11-13 16:00:00,
2013-11-13 11:01:00,33.4,15.3,30.69,West,281,5.0,12.0,47,0.00,,,0.00,Wunderground v.1.15,2013-11-13 16:01:00,
2013-11-13 11:02:00,33.3,15.2,30.69,West,281,6.0,12.0,47,0.00,,,0.00,Wunderground v.1.15,2013-11-13 16:02:00,
2013-11-13 11:03:00,33.3,14.7,30.68,WNW,298,6.0,12.0,46,0.00,,,0.00,Wunderground v.1.15,2013-11-13 16:03:00,
2013-11-13 11:04:00,33.2,14.6,30.68,WSW,250,6.0,12.0,46,0.00,,,0.00,Wunderground v.1.15,2013-11-13 16:04:00,
2013-11-13 11:08:00,33.5,14.4,30.68,NNE,26,5.0,12.0,45,0.00,,,0.00,Wunderground v.1.15,2013-11-13 16:08:00,
2013-11-13 11:09:00,33.6,14.5,30.68,WNW,294,5.0,12.0,45,0.00,,,0.00,Wunderground v.1.15,2013-11-13 16:09:00,
2013-11-13 11:11:00,34.0,15.9,30.68,West,265,5.0,12.0,47,0.00,,,0.00,Wunderground v.1.15,2013-11-13 16:11:00,
2013-11-13 11:12:00,34.1,15.5,30.69,West,266,5.0,12.0,46,0.00,,,0.00,Wunderground v.1.15,2013-11-13 16:12:00,
2013-11-13 11:15:00,34.3,14.6,30.69,NW,317,4.0,12.0,44,0.00,,,0.00,Wunderground v.1.15,2013-11-13 16:15:00,
2013-11-13 11:17:00,34.4,14.2,30.69,NNW,347,5.0,12.0,43,0.00,,,0.00,Wunderground v.1.15,2013-11-13 16:17:00,
2013-11-13 11:18:00,34.4,14.7,30.69,NW,312,5.0,12.0,44,0.00,,,0.00,Wunderground v.1.15,2013-11-13 16:18:00,
2013-11-13 11:19:00,34.4,15.7,30.69,NW,319,5.0,12.0,46,0.00,,,0.00,Wunderground v.1.15,2013-11-13 16:19:00,
2013-11-13 11:21:00,34.7,16.0,30.69,WNW,299,5.0,12.0,46,0.00,,,0.00,Wunderground v.1.15,2013-11-13 16:21:00,
2013-11-13 11:23:00,34.9,15.7,30.69,West,277,5.0,12.0,45,0.00,,,0.00,Wunderground v.1.15,2013-11-13 16:23:00,
2013-11-13 11:25:00,35.0,15.8,30.69,NW,313,6.0,12.0,45,0.00,,,0.00,Wunderground v.1.15,2013-11-13 16:25:00,
2013-11-13 11:26:00,35.1,15.9,30.69,NW,324,5.0,12.0,45,0.00,,,0.00,Wunderground v.1.15,2013-11-13 16:26:00,
2013-11-13 11:27:00,35.3,16.0,30.69,WNW,296,5.0,12.0,45,0.00,,,0.00,Wunderground v.1.15,2013-11-13 16:27:00,
2013-11-13 11:30:00,35.6,15.8,30.69,NW,321,6.0,12.0,44,0.00,,,0.00,Wunderground v.1.15,2013-11-13 16:30:00,
2013-11-13 11:31:00,35.6,15.3,30.69,NW,307,6.0,12.0,43,0.00,,,0.00,Wunderground v.1.15,2013-11-13 16:31:00,
2013-11-13 11:32:00,35.6,15.8,30.69,West,275,6.0,12.0,44,0.00,,,0.00,Wunderground v.1.15,2013-11-13 16:32:00,
2013-11-13 11:35:00,35.2,14.9,30.69,WSW,247,6.0,12.0,43,0.00,,,0.00,Wunderground v.1.15,2013-11-13 16:35:00,
2013-11-13 11:36:00,35.1,15.3,30.69,NNW,335,6.0,12.0,44,0.00,,,0.00,Wunderground v.1.15,2013-11-13 16:36:00,
2013-11-13 11:37:00,35.2,15.4,30.69,NW,310,7.0,12.0,44,0.00,,,0.00,Wunderground v.1.15,2013-11-13 16:37:00,
2013-11-13 11:40:00,35.5,15.7,30.69,NW,304,8.0,12.0,44,0.00,,,0.00,Wunderground v.1.15,2013-11-13 16:40:00,
2013-11-13 11:42:00,35.6,16.3,30.69,NW,305,7.0,12.0,45,0.00,,,0.00,Wunderground v.1.15,2013-11-13 16:42:00,
2013-11-13 11:43:00,35.7,16.4,30.69,WNW,285,8.0,12.0,45,0.00,,,0.00,Wunderground v.1.15,2013-11-13 16:43:00,
2013-11-13 11:46:00,35.9,16.1,30.68,West,269,7.0,12.0,44,0.00,,,0.00,Wunderground v.1.15,2013-11-13 16:46:00,
2013-11-13 11:47:00,35.9,16.6,30.69,WNW,289,7.0,12.0,45,0.00,,,0.00,Wunderground v.1.15,2013-11-13 16:47:00,
2013-11-13 11:48:00,35.9,16.6,30.68,WNW,293,7.0,12.0,45,0.00,,,0.00,Wunderground v.1.15,2013-11-13 16:48:00,
2013-11-13 11:52:00,35.8,16.0,30.68,North,355,8.0,12.0,44,0.00,,,0.00,Wunderground v.1.15,2013-11-13 16:52:00,
2013-11-13 11:53:00,35.9,16.1,30.68,WSW,244,8.0,12.0,44,0.00,,,0.00,Wunderground v.1.15,2013-11-13 16:53:00,
2013-11-13 11:54:00,36.0,17.2,30.68,WNW,288,7.0,15.0,46,0.00,,,0.00,Wunderground v.1.15,2013-11-13 16:54:00,
2013-11-13 11:57:00,35.7,15.9,30.68,WSW,257,8.0,15.0,44,0.00,,,0.00,Wunderground v.1.15,2013-11-13 16:57:00,
2013-11-13 11:59:00,35.5,15.7,30.68,West,279,8.0,15.0,44,0.00,,,0.00,Wunderground v.1.15,2013-11-13 16:59:00,
2013-11-13 12:00:00,35.5,15.7,30.68,West,259,9.0,9.0,44,0.00,,,0.00,Wunderground v.1.15,2013-11-13 17:00:00,
2013-11-13 12:01:00,35.6,16.3,30.68,WSW,241,9.0,12.0,45,0.00,,,0.00,Wunderground v.1.15,2013-11-13 17:01:00,
2013-11-13 12:04:00,36.0,16.7,30.67,West,273,9.0,12.0,45,0.00,,,0.00,Wunderground v.1.15,2013-11-13 17:04:00,
2013-11-13 12:05:00,36.1,16.8,30.67,West,265,9.0,12.0,45,0.00,,,0.00,Wunderground v.1.15,2013-11-13 17:05:00,
2013-11-13 12:09:00,36.3,16.4,30.67,West,273,8.0,12.0,44,0.00,,,0.00,Wunderground v.1.15,2013-11-13 17:09:00,
2013-11-13 12:10:00,36.3,15.9,30.67,West,274,8.0,12.0,43,0.00,,,0.00,Wunderground v.1.15,2013-11-13 17:10:00,
2013-11-13 12:12:00,36.3,16.4,30.67,NW,309,8.0,12.0,44,0.00,,,0.00,Wunderground v.1.15,2013-11-13 17:12:00,
2013-11-13 12:15:00,36.6,17.2,30.67,West,266,8.0,12.0,45,0.00,,,0.00,Wunderground v.1.15,2013-11-13 17:15:00,
2013-11-13 12:16:00,36.6,16.7,30.67,West,281,8.0,12.0,44,0.00,,,0.00,Wunderground v.1.15,2013-11-13 17:16:00,
2013-11-13 12:17:00,36.5,16.1,30.67,West,280,8.0,12.0,43,0.00,,,0.00,Wunderground v.1.15,2013-11-13 17:17:00,
2013-11-13 12:18:00,36.5,16.1,30.67,West,276,8.0,12.0,43,0.00,,,0.00,Wunderground v.1.15,2013-11-13 17:18:00,
2013-11-13 12:21:00,36.7,16.3,30.67,NW,309,7.0,12.0,43,0.00,,,0.00,Wunderground v.1.15,2013-11-13 17:21:00,
2013-11-13 12:23:00,36.7,16.8,30.67,West,277,7.0,12.0,44,0.00,,,0.00,Wunderground v.1.15,2013-11-13 17:23:00,
2013-11-13 12:24:00,36.8,16.9,30.67,West,271,7.0,12.0,44,0.00,,,0.00,Wunderground v.1.15,2013-11-13 17:24:00,
2013-11-13 12:26:00,36.8,16.4,30.67,WNW,298,8.0,12.0,43,0.00,,,0.00,Wunderground v.1.15,2013-11-13 17:26:00,
2013-11-13 12:27:00,36.8,16.4,30.67,West,275,8.0,12.0,43,0.00,,,0.00,Wunderground v.1.15,2013-11-13 17:27:00,
2013-11-13 12:28:00,36.8,16.9,30.67,West,274,8.0,12.0,44,0.00,,,0.00,Wunderground v.1.15,2013-11-13 17:28:00,
2013-11-13 12:29:00,36.8,16.4,30.67,WNW,286,8.0,12.0,43,0.00,,,0.00,Wunderground v.1.15,2013-11-13 17:29:00,
2013-11-13 12:31:00,36.9,15.9,30.66,West,270,8.0,12.0,42,0.00,,,0.00,Wunderground v.1.15,2013-11-13 17:31:00,
2013-11-13 12:34:00,37.3,16.3,30.66,NW,313,7.0,12.0,42,0.00,,,0.00,Wunderground v.1.15,2013-11-13 17:34:00,
2013-11-13 12:35:00,37.4,16.4,30.66,NNW,338,7.0,12.0,42,0.00,,,0.00,Wunderground v.1.15,2013-11-13 17:35:00,
2013-11-13 12:36:00,37.5,16.5,30.66,WNW,282,7.0,12.0,42,0.00,,,0.00,Wunderground v.1.15,2013-11-13 17:36:00,
2013-11-13 12:37:00,37.5,16.5,30.66,West,269,6.0,12.0,42,0.00,,,0.00,Wunderground v.1.15,2013-11-13 17:37:00,
2013-11-13 12:38:00,37.5,16.5,30.66,WNW,289,6.0,12.0,42,0.00,,,0.00,Wunderground v.1.15,2013-11-13 17:38:00,
2013-11-13 12:39:00,37.7,16.6,30.66,WNW,284,6.0,12.0,42,0.00,,,0.00,Wunderground v.1.15,2013-11-13 17:39:00,
2013-11-13 12:40:00,37.8,16.7,30.66,NW,304,6.0,12.0,42,0.00,,,0.00,Wunderground v.1.15,2013-11-13 17:40:00,
2013-11-13 12:42:00,37.9,16.8,30.66,West,263,7.0,12.0,42,0.00,,,0.00,Wunderground v.1.15,2013-11-13 17:42:00,
2013-11-13 12:43:00,38.0,16.9,30.66,West,273,7.0,12.0,42,0.00,,,0.00,Wunderground v.1.15,2013-11-13 17:43:00,
2013-11-13 12:46:00,38.1,16.4,30.65,WNW,298,7.0,12.0,41,0.00,,,0.00,Wunderground v.1.15,2013-11-13 17:46:00,
2013-11-13 12:49:00,38.0,16.4,30.65,NW,321,7.0,12.0,41,0.00,,,0.00,Wunderground v.1.15,2013-11-13 17:49:00,
2013-11-13 12:50:00,38.0,16.4,30.65,WNW,290,7.0,7.0,41,0.00,,,0.00,Wunderground v.1.15,2013-11-13 17:50:00,
2013-11-13 12:52:00,38.0,15.8,30.65,WSW,253,7.0,12.0,40,0.00,,,0.00,Wunderground v.1.15,2013-11-13 17:52:00,
2013-11-13 12:53:00,37.9,15.7,30.65,West,276,7.0,12.0,40,0.00,,,0.00,Wunderground v.1.15,2013-11-13 17:53:00,
2013-11-13 12:57:00,38.0,16.4,30.65,NW,314,8.0,12.0,41,0.00,,,0.00,Wunderground v.1.15,2013-11-13 17:57:00,
2013-11-13 12:58:00,38.0,16.4,30.65,WNW,284,8.0,12.0,41,0.00,,,0.00,Wunderground v.1.15,2013-11-13 17:58:00,
2013-11-13 12:59:00,38.2,17.1,30.65,NW,306,8.0,12.0,42,0.00,,,0.00,Wunderground v.1.15,2013-11-13 17:59:00,
2013-11-13 13:01:00,38.3,16.6,30.65,NW,308,8.0,12.0,41,0.00,,,0.00,Wunderground v.1.15,2013-11-13 18:01:00,
2013-11-13 13:04:00,38.3,16.1,30.64,WNW,300,8.0,12.0,40,0.00,,,0.00,Wunderground v.1.15,2013-11-13 18:04:00,
2013-11-13 13:06:00,38.4,16.1,30.64,WNW,287,8.0,12.0,40,0.00,,,0.00,Wunderground v.1.15,2013-11-13 18:06:00,
2013-11-13 13:08:00,38.5,16.8,30.64,West,275,8.0,12.0,41,0.00,,,0.00,Wunderground v.1.15,2013-11-13 18:08:00,
2013-11-13 13:11:00,38.7,17.0,30.64,NNW,327,9.0,12.0,41,0.00,,,0.00,Wunderground v.1.15,2013-11-13 18:11:00,
2013-11-13 13:12:00,38.8,16.5,30.64,NW,309,8.0,12.0,40,0.00,,,0.00,Wunderground v.1.15,2013-11-13 18:12:00,
2013-11-13 13:13:00,38.8,16.5,30.64,West,268,8.0,12.0,40,0.00,,,0.00,Wunderground v.1.15,2013-11-13 18:13:00,
2013-11-13 13:14:00,38.9,17.2,30.64,West,259,8.0,12.0,41,0.00,,,0.00,Wunderground v.1.15,2013-11-13 18:14:00,
2013-11-13 13:15:00,38.9,16.6,30.64,NW,308,8.0,12.0,40,0.00,,,0.00,Wunderground v.1.15,2013-11-13 18:15:00,
2013-11-13 13:18:00,38.9,16.6,30.64,WNW,302,9.0,13.0,40,0.00,,,0.00,Wunderground v.1.15,2013-11-13 18:18:00,
2013-11-13 13:21:00,39.0,16.7,30.64,West,273,9.0,12.0,40,0.00,,,0.00,Wunderground v.1.15,2013-11-13 18:21:00,
2013-11-13 13:22:00,39.1,17.4,30.64,West,277,9.0,12.0,41,0.00,,,0.00,Wunderground v.1.15,2013-11-13 18:22:00,
2013-11-13 13:24:00,39.4,17.0,30.64,West,262,9.0,12.0,40,0.00,,,0.00,Wunderground v.1.15,2013-11-13 18:24:00,
2013-11-13 13:26:00,39.3,17.0,30.64,West,281,9.0,12.0,40,0.00,,,0.00,Wunderground v.1.15,2013-11-13 18:26:00,
2013-11-13 13:27:00,39.3,17.0,30.64,West,259,9.0,12.0,40,0.00,,,0.00,Wunderground v.1.15,2013-11-13 18:27:00,
2013-11-13 13:28:00,39.3,17.0,30.64,West,271,9.0,15.0,40,0.00,,,0.00,Wunderground v.1.15,2013-11-13 18:28:00,
2013-11-13 13:30:00,39.4,16.5,30.64,West,265,9.0,12.0,39,0.00,,,0.00,Wunderground v.1.15,2013-11-13 18:30:00,
2013-11-13 13:33:00,39.4,17.0,30.64,West,279,9.0,12.0,40,0.00,,,0.00,Wunderground v.1.15,2013-11-13 18:33:00,
2013-11-13 13:35:00,39.4,16.5,30.64,West,267,9.0,12.0,39,0.00,,,0.00,Wunderground v.1.15,2013-11-13 18:35:00,
2013-11-13 13:36:00,39.4,16.5,30.63,West,267,9.0,12.0,39,0.00,,,0.00,Wunderground v.1.15,2013-11-13 18:36:00,
2013-11-13 13:38:00,39.5,16.6,30.63,WNW,294,9.0,12.0,39,0.00,,,0.00,Wunderground v.1.15,2013-11-13 18:38:00,
2013-11-13 13:39:00,39.6,17.2,30.63,NW,307,9.0,12.0,40,0.00,,,0.00,Wunderground v.1.15,2013-11-13 18:39:00,
2013-11-13 13:41:00,39.7,16.7,30.63,West,279,9.0,12.0,39,0.00,,,0.00,Wunderground v.1.15,2013-11-13 18:41:00,
2013-11-13 13:42:00,39.6,16.0,30.63,West,261,9.0,12.0,38,0.00,,,0.00,Wunderground v.1.15,2013-11-13 18:42:00,
2013-11-13 13:44:00,39.6,16.6,30.63,WNW,293,9.0,12.0,39,0.00,,,0.00,Wunderground v.1.15,2013-11-13 18:44:00,
2013-11-13 13:45:00,39.7,17.3,30.63,WNW,287,9.0,12.0,40,0.00,,,0.00,Wunderground v.1.15,2013-11-13 18:45:00,
2013-11-13 13:46:00,39.8,16.8,30.63,West,281,9.0,12.0,39,0.00,,,0.00,Wunderground v.1.15,2013-11-13 18:46:00,
2013-11-13 13:50:00,40.5,17.5,30.63,NW,308,7.0,12.0,39,0.00,,,0.00,Wunderground v.1.15,2013-11-13 18:50:00,
2013-11-13 13:51:00,40.6,17.5,30.63,West,281,8.0,12.0,39,0.00,,,0.00,Wunderground v.1.15,2013-11-13 18:51:00,
2013-11-13 13:52:00,40.6,16.9,30.63,West,281,8.0,12.0,38,0.00,,,0.00,Wunderground v.1.15,2013-11-13 18:52:00,
2013-11-13 13:53:00,40.6,16.9,30.63,WNW,302,8.0,12.0,38,0.00,,,0.00,Wunderground v.1.15,2013-11-13 18:53:00,
2013-11-13 13:55:00,40.7,17.0,30.63,NNW,335,7.0,12.0,38,0.00,,,0.00,Wunderground v.1.15,2013-11-13 18:55:00,
2013-11-13 13:56:00,40.7,17.0,30.62,NW,306,7.0,12.0,38,0.00,,,0.00,Wunderground v.1.15,2013-11-13 18:56:00,
2013-11-13 13:58:00,40.9,17.2,30.63,WNW,303,7.0,12.0,38,0.00,,,0.00,Wunderground v.1.15,2013-11-13 18:58:00,
2013-11-13 14:01:00,40.9,16.6,30.62,WSW,254,8.0,12.0,37,0.00,,,0.00,Wunderground v.1.15,2013-11-13 19:01:00,
2013-11-13 14:02:00,41.0,17.3,30.62,NW,314,7.0,12.0,38,0.00,,,0.00,Wunderground v.1.15,2013-11-13 19:02:00,
2013-11-13 14:04:00,41.1,17.4,30.63,NW,305,7.0,12.0,38,0.00,,,0.00,Wunderground v.1.15,2013-11-13 19:04:00,
2013-11-13 14:06:00,41.0,16.0,30.63,NW,308,7.0,12.0,36,0.00,,,0.00,Wunderground v.1.15,2013-11-13 19:06:00,
2013-11-13 14:07:00,41.0,16.0,30.63,NW,306,7.0,12.0,36,0.00,,,0.00,Wunderground v.1.15,2013-11-13 19:07:00,
2013-11-13 14:08:00,41.0,16.0,30.62,WNW,294,7.0,12.0,36,0.00,,,0.00,Wunderground v.1.15,2013-11-13 19:08:00,
2013-11-13 14:09:00,41.0,16.7,30.62,WNW,296,7.0,12.0,37,0.00,,,0.00,Wunderground v.1.15,2013-11-13 19:09:00,
2013-11-13 14:11:00,41.2,16.2,30.62,WNW,283,7.0,12.0,36,0.00,,,0.00,Wunderground v.1.15,2013-11-13 19:11:00,
2013-11-13 14:12:00,41.3,16.9,30.63,West,277,7.0,12.0,37,0.00,,,0.00,Wunderground v.1.15,2013-11-13 19:12:00,
2013-11-13 14:14:00,41.5,17.1,30.63,WNW,286,7.0,12.0,37,0.00,,,0.00,Wunderground v.1.15,2013-11-13 19:14:00,
2013-11-13 14:19:00,41.2,16.2,30.63,West,264,7.0,12.0,36,0.00,,,0.00,Wunderground v.1.15,2013-11-13 19:19:00,
2013-11-13 14:20:00,41.1,15.5,30.63,NW,308,8.0,8.0,35,0.00,,,0.00,Wunderground v.1.15,2013-11-13 19:20:00,
2013-11-13 14:22:00,41.2,16.9,30.63,West,273,8.0,14.0,37,0.00,,,0.00,Wunderground v.1.15,2013-11-13 19:22:00,
2013-11-13 14:24:00,41.1,16.1,30.62,West,261,8.0,14.0,36,0.00,,,0.00,Wunderground v.1.15,2013-11-13 19:24:00,
2013-11-13 14:25:00,41.0,16.0,30.62,WNW,292,8.0,14.0,36,0.00,,,0.00,Wunderground v.1.15,2013-11-13 19:25:00,
2013-11-13 14:27:00,41.2,15.6,30.62,West,275,8.0,14.0,35,0.00,,,0.00,Wunderground v.1.15,2013-11-13 19:27:00,
2013-11-13 14:28:00,41.1,15.5,30.62,West,275,8.0,14.0,35,0.00,,,0.00,Wunderground v.1.15,2013-11-13 19:28:00,
2013-11-13 14:29:00,41.0,15.4,30.62,WNW,290,8.0,14.0,35,0.00,,,0.00,Wunderground v.1.15,2013-11-13 19:29:00,
2013-11-13 14:32:00,41.1,16.1,30.62,WNW,287,8.0,12.0,36,0.00,,,0.00,Wunderground v.1.15,2013-11-13 19:32:00,
2013-11-13 14:34:00,41.2,16.2,30.62,WNW,289,8.0,12.0,36,0.00,,,0.00,Wunderground v.1.15,2013-11-13 19:34:00,
2013-11-13 14:37:00,41.5,16.5,30.62,WNW,299,8.0,12.0,36,0.00,,,0.00,Wunderground v.1.15,2013-11-13 19:37:00,
2013-11-13 14:38:00,41.6,16.6,30.62,WNW,284,8.0,12.0,36,0.00,,,0.00,Wunderground v.1.15,2013-11-13 19:38:00,
2013-11-13 14:40:00,41.7,16.7,30.62,NNW,327,7.0,7.0,36,0.00,,,0.00,Wunderground v.1.15,2013-11-13 19:40:00,
2013-11-13 14:44:00,41.9,16.2,30.62,West,277,7.0,12.0,35,0.00,,,0.00,Wunderground v.1.15,2013-11-13 19:44:00,
2013-11-13 14:46:00,42.0,16.9,30.62,West,263,7.0,12.0,36,0.00,,,0.00,Wunderground v.1.15,2013-11-13 19:46:00,
2013-11-13 14:47:00,41.9,16.2,30.62,West,271,7.0,12.0,35,0.00,,,0.00,Wunderground v.1.15,2013-11-13 19:47:00,
2013-11-13 14:48:00,42.0,16.3,30.62,West,276,7.0,12.0,35,0.00,,,0.00,Wunderground v.1.15,2013-11-13 19:48:00,
2013-11-13 14:50:00,42.1,16.4,30.62,West,273,7.0,12.0,35,0.00,,,0.00,Wunderground v.1.15,2013-11-13 19:50:00,
2013-11-13 14:53:00,41.9,15.5,30.62,WNW,302,8.0,12.0,34,0.00,,,0.00,Wunderground v.1.15,2013-11-13 19:53:00,
2013-11-13 14:55:00,41.8,16.1,30.62,WNW,296,8.0,12.0,35,0.00,,,0.00,Wunderground v.1.15,2013-11-13 19:55:00,
2013-11-13 14:56:00,41.8,16.1,30.62,NW,311,8.0,12.0,35,0.00,,,0.00,Wunderground v.1.15,2013-11-13 19:56:00,
2013-11-13 14:58:00,41.8,16.1,30.62,NW,314,9.0,12.0,35,0.00,,,0.00,Wunderground v.1.15,2013-11-13 19:58:00,
2013-11-13 14:59:00,41.8,16.1,30.62,West,281,9.0,12.0,35,0.00,,,0.00,Wunderground v.1.15,2013-11-13 19:59:00,
2013-11-13 15:01:00,41.8,16.1,30.62,WNW,283,9.0,12.0,35,0.00,,,0.00,Wunderground v.1.15,2013-11-13 20:01:00,
2013-11-13 15:02:00,41.8,16.1,30.62,WNW,300,9.0,12.0,35,0.00,,,0.00,Wunderground v.1.15,2013-11-13 20:02:00,
2013-11-13 15:04:00,41.9,16.2,30.62,West,277,9.0,12.0,35,0.00,,,0.00,Wunderground v.1.15,2013-11-13 20:04:00,
2013-11-13 15:05:00,41.9,16.2,30.62,West,275,9.0,12.0,35,0.00,,,0.00,Wunderground v.1.15,2013-11-13 20:05:00,
2013-11-13 15:06:00,42.0,16.3,30.62,WSW,254,8.0,12.0,35,0.00,,,0.00,Wunderground v.1.15,2013-11-13 20:06:00,
2013-11-13 15:08:00,42.0,16.3,30.62,NW,317,8.0,12.0,35,0.00,,,0.00,Wunderground v.1.15,2013-11-13 20:08:00,
2013-11-13 15:09:00,42.0,16.3,30.62,West,279,8.0,12.0,35,0.00,,,0.00,Wunderground v.1.15,2013-11-13 20:09:00,
2013-11-13 15:12:00,42.2,16.5,30.62,WNW,285,8.0,12.0,35,0.00,,,0.00,Wunderground v.1.15,2013-11-13 20:12:00,
2013-11-13 15:13:00,42.3,16.6,30.62,West,271,8.0,12.0,35,0.00,,,0.00,Wunderground v.1.15,2013-11-13 20:13:00,
2013-11-13 15:14:00,42.3,16.6,30.62,WNW,300,7.0,12.0,35,0.00,,,0.00,Wunderground v.1.15,2013-11-13 20:14:00,
2013-11-13 15:15:00,42.4,17.3,30.62,WNW,283,7.0,12.0,36,0.00,,,0.00,Wunderground v.1.15,2013-11-13 20:15:00,
2013-11-13 15:16:00,42.6,17.5,30.62,NW,319,7.0,12.0,36,0.00,,,0.00,Wunderground v.1.15,2013-11-13 20:16:00,
2013-11-13 15:18:00,42.8,16.3,30.62,WNW,300,6.0,12.0,34,0.00,,,0.00,Wunderground v.1.15,2013-11-13 20:18:00,
2013-11-13 15:22:00,43.1,16.6,30.62,NW,323,5.0,12.0,34,0.00,,,0.00,Wunderground v.1.15,2013-11-13 20:22:00,
2013-11-13 15:24:00,43.1,16.6,30.62,WNW,290,5.0,12.0,34,0.00,,,0.00,Wunderground v.1.15,2013-11-13 20:24:00,
2013-11-13 15:25:00,43.1,16.6,30.62,West,280,5.0,12.0,34,0.00,,,0.00,Wunderground v.1.15,2013-11-13 20:25:00,
2013-11-13 15:28:00,43.1,16.6,30.62,West,276,6.0,12.0,34,0.00,,,0.00,Wunderground v.1.15,2013-11-13 20:28:00,
2013-11-13 15:30:00,43.0,16.5,30.62,NW,311,6.0,6.0,34,0.00,,,0.00,Wunderground v.1.15,2013-11-13 20:30:00,
2013-11-13 15:31:00,43.0,16.5,30.62,West,272,6.0,12.0,34,0.00,,,0.00,Wunderground v.1.15,2013-11-13 20:31:00,
2013-11-13 15:35:00,43.1,16.6,30.62,WNW,303,6.0,12.0,34,0.00,,,0.00,Wunderground v.1.15,2013-11-13 20:35:00,
2013-11-13 15:37:00,43.1,16.6,30.62,WNW,288,6.0,12.0,34,0.00,,,0.00,Wunderground v.1.15,2013-11-13 20:37:00,
2013-11-13 15:38:00,43.1,17.3,30.62,WNW,292,6.0,12.0,35,0.00,,,0.00,Wunderground v.1.15,2013-11-13 20:38:00,
2013-11-13 15:39:00,43.2,17.4,30.62,NW,308,5.0,12.0,35,0.00,,,0.00,Wunderground v.1.15,2013-11-13 20:39:00,
2013-11-13 15:41:00,43.2,16.7,30.62,WNW,300,5.0,12.0,34,0.00,,,0.00,Wunderground v.1.15,2013-11-13 20:41:00,
2013-11-13 15:42:00,43.2,16.7,30.62,WNW,302,5.0,12.0,34,0.00,,,0.00,Wunderground v.1.15,2013-11-13 20:42:00,
2013-11-13 15:43:00,43.2,16.7,30.62,WNW,302,5.0,12.0,34,0.00,,,0.00,Wunderground v.1.15,2013-11-13 20:43:00,
2013-11-13 15:46:00,43.2,16.7,30.62,WNW,300,5.0,12.0,34,0.00,,,0.00,Wunderground v.1.15,2013-11-13 20:46:00,
2013-11-13 15:47:00,43.2,16.7,30.63,NW,319,5.0,12.0,34,0.00,,,0.00,Wunderground v.1.15,2013-11-13 20:47:00,
2013-11-13 15:48:00,43.1,16.6,30.62,NW,323,5.0,12.0,34,0.00,,,0.00,Wunderground v.1.15,2013-11-13 20:48:00,
2013-11-13 15:53:00,42.9,16.4,30.62,NNW,344,5.0,12.0,34,0.00,,,0.00,Wunderground v.1.15,2013-11-13 20:53:00,
2013-11-13 15:55:00,43.0,17.2,30.62,WNW,301,5.0,12.0,35,0.00,,,0.00,Wunderground v.1.15,2013-11-13 20:55:00,
2013-11-13 15:56:00,43.1,17.3,30.62,West,262,5.0,12.0,35,0.00,,,0.00,Wunderground v.1.15,2013-11-13 20:56:00,
2013-11-13 15:58:00,43.1,16.6,30.62,WNW,298,5.0,12.0,34,0.00,,,0.00,Wunderground v.1.15,2013-11-13 20:58:00,
2013-11-13 16:00:00,42.9,16.4,30.62,NW,307,5.0,12.0,34,0.00,,,0.00,Wunderground v.1.15,2013-11-13 21:00:00,
2013-11-13 16:01:00,42.8,16.3,30.62,WNW,298,5.0,12.0,34,0.00,,,0.00,Wunderground v.1.15,2013-11-13 21:01:00,
2013-11-13 16:02:00,42.8,16.3,30.62,NW,306,5.0,12.0,34,0.00,,,0.00,Wunderground v.1.15,2013-11-13 21:02:00,
2013-11-13 16:04:00,42.8,16.3,30.62,WNW,302,6.0,12.0,34,0.00,,,0.00,Wunderground v.1.15,2013-11-13 21:04:00,
2013-11-13 16:05:00,42.7,16.2,30.62,West,269,6.0,12.0,34,0.00,,,0.00,Wunderground v.1.15,2013-11-13 21:05:00,
2013-11-13 16:07:00,42.7,16.2,30.62,West,277,6.0,12.0,34,0.00,,,0.00,Wunderground v.1.15,2013-11-13 21:07:00,
2013-11-13 16:08:00,42.6,16.8,30.62,West,273,6.0,12.0,35,0.00,,,0.00,Wunderground v.1.15,2013-11-13 21:08:00,
2013-11-13 16:09:00,42.6,16.2,30.62,WNW,292,6.0,12.0,34,0.00,,,0.00,Wunderground v.1.15,2013-11-13 21:09:00,
2013-11-13 16:11:00,42.6,16.8,30.62,NW,311,6.0,12.0,35,0.00,,,0.00,Wunderground v.1.15,2013-11-13 21:11:00,
2013-11-13 16:15:00,42.6,17.5,30.62,NW,306,5.0,12.0,36,0.00,,,0.00,Wunderground v.1.15,2013-11-13 21:15:00,
2013-11-13 16:16:00,42.7,17.6,30.62,NW,304,5.0,12.0,36,0.00,,,0.00,Wunderground v.1.15,2013-11-13 21:16:00,
2013-11-13 16:18:00,42.7,16.9,30.62,NW,306,5.0,12.0,35,0.00,,,0.00,Wunderground v.1.15,2013-11-13 21:18:00,
2013-11-13 16:20:00,42.6,16.8,30.62,NNW,337,5.0,12.0,35,0.00,,,0.00,Wunderground v.1.15,2013-11-13 21:20:00,
2013-11-13 16:21:00,42.5,16.7,30.63,North,355,5.0,12.0,35,0.00,,,0.00,Wunderground v.1.15,2013-11-13 21:21:00,
2013-11-13 16:22:00,42.4,16.6,30.63,WNW,303,5.0,12.0,35,0.00,,,0.00,Wunderground v.1.15,2013-11-13 21:22:00,
2013-11-13 16:25:00,42.3,17.2,30.63,WNW,287,5.0,12.0,36,0.00,,,0.00,Wunderground v.1.15,2013-11-13 21:25:00,
2013-11-13 16:26:00,42.4,17.3,30.63,WNW,300,5.0,12.0,36,0.00,,,0.00,Wunderground v.1.15,2013-11-13 21:26:00,
2013-11-13 16:27:00,42.4,17.3,30.63,WNW,294,5.0,12.0,36,0.00,,,0.00,Wunderground v.1.15,2013-11-13 21:27:00,
2013-11-13 16:31:00,42.1,17.0,30.63,WNW,301,6.0,12.0,36,0.00,,,0.00,Wunderground v.1.15,2013-11-13 21:31:00,
2013-11-13 16:33:00,42.0,17.6,30.63,WNW,282,5.0,12.0,37,0.00,,,0.00,Wunderground v.1.15,2013-11-13 21:33:00,
2013-11-13 16:35:00,41.9,17.5,30.63,WNW,302,6.0,12.0,37,0.00,,,0.00,Wunderground v.1.15,2013-11-13 21:35:00,
2013-11-13 16:38:00,41.8,17.4,30.63,NNW,329,6.0,12.0,37,0.00,,,0.00,Wunderground v.1.15,2013-11-13 21:38:00,
2013-11-13 16:39:00,41.8,17.4,30.63,WNW,288,5.0,12.0,37,0.00,,,0.00,Wunderground v.1.15,2013-11-13 21:39:00,
2013-11-13 16:40:00,41.8,17.4,30.63,WNW,292,5.0,12.0,37,0.00,,,0.00,Wunderground v.1.15,2013-11-13 21:40:00,
2013-11-13 16:41:00,41.8,17.4,30.63,WNW,294,5.0,12.0,37,0.00,,,0.00,Wunderground v.1.15,2013-11-13 21:41:00,
2013-11-13 16:42:00,41.7,17.3,30.63,NW,311,5.0,12.0,37,0.00,,,0.00,Wunderground v.1.15,2013-11-13 21:42:00,
2013-11-13 16:45:00,41.5,17.1,30.63,WNW,301,5.0,12.0,37,0.00,,,0.00,Wunderground v.1.15,2013-11-13 21:45:00,
2013-11-13 16:46:00,41.4,17.0,30.63,NNW,332,5.0,12.0,37,0.00,,,0.00,Wunderground v.1.15,2013-11-13 21:46:00,
2013-11-13 16:47:00,41.3,16.9,30.63,NW,309,5.0,12.0,37,0.00,,,0.00,Wunderground v.1.15,2013-11-13 21:47:00,
2013-11-13 16:50:00,41.3,16.9,30.63,NW,311,5.0,12.0,37,0.00,,,0.00,Wunderground v.1.15,2013-11-13 21:50:00,
2013-11-13 16:51:00,41.2,16.9,30.63,NW,311,5.0,12.0,37,0.00,,,0.00,Wunderground v.1.15,2013-11-13 21:51:00,
2013-11-13 16:52:00,41.2,16.9,30.63,NW,306,5.0,12.0,37,0.00,,,0.00,Wunderground v.1.15,2013-11-13 21:52:00,
2013-11-13 16:53:00,41.1,16.8,30.63,WNW,298,5.0,12.0,37,0.00,,,0.00,Wunderground v.1.15,2013-11-13 21:53:00,
2013-11-13 16:55:00,41.1,17.4,30.63,West,281,5.0,12.0,38,0.00,,,0.00,Wunderground v.1.15,2013-11-13 21:55:00,
2013-11-13 16:58:00,40.9,17.2,30.63,NW,304,5.0,12.0,38,0.00,,,0.00,Wunderground v.1.15,2013-11-13 21:58:00,
2013-11-13 17:00:00,40.8,17.7,30.63,NW,308,5.0,5.0,39,0.00,,,0.00,Wunderground v.1.15,2013-11-13 22:00:00,
2013-11-13 17:01:00,40.7,17.0,30.63,NW,306,5.0,12.0,38,0.00,,,0.00,Wunderground v.1.15,2013-11-13 22:01:00,
2013-11-13 17:03:00,40.6,17.5,30.63,NW,314,4.0,12.0,39,0.00,,,0.00,Wunderground v.1.15,2013-11-13 22:03:00,
2013-11-13 17:05:00,40.6,18.1,30.63,NW,314,4.0,12.0,40,0.00,,,0.00,Wunderground v.1.15,2013-11-13 22:05:00,
2013-11-13 17:06:00,40.5,17.5,30.63,NW,306,4.0,12.0,39,0.00,,,0.00,Wunderground v.1.15,2013-11-13 22:06:00,
2013-11-13 17:07:00,40.5,17.5,30.63,NW,317,4.0,12.0,39,0.00,,,0.00,Wunderground v.1.15,2013-11-13 22:07:00,
2013-11-13 17:08:00,40.5,17.5,30.63,NW,317,4.0,12.0,39,0.00,,,0.00,Wunderground v.1.15,2013-11-13 22:08:00,
2013-11-13 17:09:00,40.4,17.4,30.63,NW,317,3.0,12.0,39,0.00,,,0.00,Wunderground v.1.15,2013-11-13 22:09:00,
2013-11-13 17:12:00,40.2,17.8,30.63,WNW,298,3.0,12.0,40,0.00,,,0.00,Wunderground v.1.15,2013-11-13 22:12:00,
2013-11-13 17:13:00,40.1,17.7,30.63,West,279,2.0,12.0,40,0.00,,,0.00,Wunderground v.1.15,2013-11-13 22:13:00,
2013-11-13 17:14:00,40.0,18.2,30.63,West,281,2.0,12.0,41,0.00,,,0.00,Wunderground v.1.15,2013-11-13 22:14:00,
2013-11-13 17:15:00,39.8,18.0,30.63,West,281,3.0,12.0,41,0.00,,,0.00,Wunderground v.1.15,2013-11-13 22:15:00,
2013-11-13 17:18:00,39.2,18.0,30.63,WNW,284,2.0,12.0,42,0.00,,,0.00,Wunderground v.1.15,2013-11-13 22:18:00,
2013-11-13 17:19:00,39.1,17.9,30.63,WNW,287,2.0,12.0,42,0.00,,,0.00,Wunderground v.1.15,2013-11-13 22:19:00,
2013-11-13 17:20:00,38.9,17.7,30.63,NW,308,2.0,12.0,42,0.00,,,0.00,Wunderground v.1.15,2013-11-13 22:20:00,
2013-11-13 17:21:00,38.8,17.6,30.63,NW,309,2.0,12.0,42,0.00,,,0.00,Wunderground v.1.15,2013-11-13 22:21:00,
2013-11-13 17:22:00,38.7,17.5,30.63,NW,323,2.0,12.0,42,0.00,,,0.00,Wunderground v.1.15,2013-11-13 22:22:00,
2013-11-13 17:25:00,38.3,17.7,30.63,NW,323,2.0,12.0,43,0.00,,,0.00,Wunderground v.1.15,2013-11-13 22:25:00,
2013-11-13 17:27:00,38.1,18.1,30.63,NW,321,2.0,12.0,44,0.00,,,0.00,Wunderground v.1.15,2013-11-13 22:27:00,
2013-11-13 17:28:00,38.0,17.5,30.63,NW,321,2.0,12.0,43,0.00,,,0.00,Wunderground v.1.15,2013-11-13 22:28:00,
2013-11-13 17:29:00,38.0,18.0,30.63,NNW,327,2.0,12.0,44,0.00,,,0.00,Wunderground v.1.15,2013-11-13 22:29:00,
2013-11-13 17:31:00,37.8,17.8,30.63,NNW,329,2.0,12.0,44,0.00,,,0.00,Wunderground v.1.15,2013-11-13 22:31:00,
2013-11-13 17:33:00,37.7,17.7,30.63,NNW,329,2.0,12.0,44,0.00,,,0.00,Wunderground v.1.15,2013-11-13 22:33:00,
2013-11-13 17:36:00,37.4,17.4,30.63,NNW,329,2.0,12.0,44,0.00,,,0.00,Wunderground v.1.15,2013-11-13 22:36:00,
2013-11-13 17:38:00,37.3,17.4,30.63,NNW,329,2.0,12.0,44,0.00,,,0.00,Wunderground v.1.15,2013-11-13 22:38:00,
2013-11-13 17:40:00,37.2,17.3,30.63,NNW,329,2.0,2.0,44,0.00,,,0.00,Wunderground v.1.15,2013-11-13 22:40:00,
2013-11-13 17:42:00,37.0,17.6,30.63,NNW,329,1.0,12.0,45,0.00,,,0.00,Wunderground v.1.15,2013-11-13 22:42:00,
2013-11-13 17:43:00,37.0,17.6,30.63,NNW,329,1.0,12.0,45,0.00,,,0.00,Wunderground v.1.15,2013-11-13 22:43:00,
2013-11-13 17:44:00,36.9,17.5,30.63,NNW,329,1.0,12.0,45,0.00,,,0.00,Wunderground v.1.15,2013-11-13 22:44:00,
2013-11-13 17:45:00,36.8,17.4,30.63,NNW,329,1.0,12.0,45,0.00,,,0.00,Wunderground v.1.15,2013-11-13 22:45:00,
2013-11-13 17:49:00,36.5,18.2,30.63,NNW,329,0.0,12.0,47,0.00,,,0.00,Wunderground v.1.15,2013-11-13 22:49:00,
2013-11-13 17:50:00,36.4,18.1,30.64,NNW,329,0.0,12.0,47,0.00,,,0.00,Wunderground v.1.15,2013-11-13 22:50:00,
2013-11-13 17:52:00,36.0,18.2,30.64,NE,39,0.0,12.0,48,0.00,,,0.00,Wunderground v.1.15,2013-11-13 22:52:00,
2013-11-13 17:55:00,35.5,17.7,30.64,NE,39,1.0,12.0,48,0.00,,,0.00,Wunderground v.1.15,2013-11-13 22:55:00,
2013-11-13 17:56:00,35.4,17.6,30.64,NE,39,1.0,12.0,48,0.00,,,0.00,Wunderground v.1.15,2013-11-13 22:56:00,
2013-11-13 17:57:00,35.3,18.0,30.64,NE,39,1.0,12.0,49,0.00,,,0.00,Wunderground v.1.15,2013-11-13 22:57:00,
2013-11-13 17:58:00,35.2,17.9,30.64,NE,39,1.0,12.0,49,0.00,,,0.00,Wunderground v.1.15,2013-11-13 22:58:00,
2013-11-13 18:01:00,35.1,18.3,30.64,NE,39,1.0,12.0,50,0.00,,,0.00,Wunderground v.1.15,2013-11-13 23:01:00,
2013-11-13 18:03:00,35.1,17.4,30.64,NNE,12,1.0,12.0,48,0.00,,,0.00,Wunderground v.1.15,2013-11-13 23:03:00,
2013-11-13 18:04:00,35.1,17.4,30.64,NNE,12,1.0,12.0,48,0.00,,,0.00,Wunderground v.1.15,2013-11-13 23:04:00,
2013-11-13 18:08:00,35.3,17.5,30.64,NNE,12,1.0,12.0,48,0.00,,,0.00,Wunderground v.1.15,2013-11-13 23:08:00,
2013-11-13 18:09:00,35.3,17.5,30.64,NNE,12,1.0,12.0,48,0.00,,,0.00,Wunderground v.1.15,2013-11-13 23:09:00,
2013-11-13 18:12:00,35.3,17.5,30.64,NNE,12,1.0,12.0,48,0.00,,,0.00,Wunderground v.1.15,2013-11-13 23:12:00,
2013-11-13 18:13:00,35.3,18.0,30.64,NNE,12,1.0,12.0,49,0.00,,,0.00,Wunderground v.1.15,2013-11-13 23:13:00,
2013-11-13 18:14:00,35.3,18.5,30.64,NNE,12,0.0,12.0,50,0.00,,,0.00,Wunderground v.1.15,2013-11-13 23:14:00,
2013-11-13 18:16:00,35.1,17.8,30.64,NNE,12,0.0,12.0,49,0.00,,,0.00,Wunderground v.1.15,2013-11-13 23:16:00,
2013-11-13 18:18:00,34.8,18.0,30.64,NNE,12,0.0,12.0,50,0.00,,,0.00,Wunderground v.1.15,2013-11-13 23:18:00,
2013-11-13 18:20:00,34.6,18.3,30.65,NNE,12,0.0,12.0,51,0.00,,,0.00,Wunderground v.1.15,2013-11-13 23:20:00,
2013-11-13 18:21:00,34.4,18.1,30.65,NNE,12,0.0,12.0,51,0.00,,,0.00,Wunderground v.1.15,2013-11-13 23:21:00,
2013-11-13 18:22:00,34.4,18.6,30.65,NNE,12,0.0,12.0,52,0.00,,,0.00,Wunderground v.1.15,2013-11-13 23:22:00,
2013-11-13 18:23:00,34.3,18.0,30.65,NNE,12,0.0,12.0,51,0.00,,,0.00,Wunderground v.1.15,2013-11-13 23:23:00,
2013-11-13 18:25:00,34.2,17.9,30.65,WNW,297,0.0,12.0,51,0.00,,,0.00,Wunderground v.1.15,2013-11-13 23:25:00,
2013-11-13 18:27:00,34.0,18.2,30.65,WNW,296,0.0,12.0,52,0.00,,,0.00,Wunderground v.1.15,2013-11-13 23:27:00,
2013-11-13 18:28:00,33.9,19.0,30.65,WNW,296,1.0,12.0,54,0.00,,,0.00,Wunderground v.1.15,2013-11-13 23:28:00,
2013-11-13 18:29:00,33.7,18.8,30.65,WNW,296,1.0,12.0,54,0.00,,,0.00,Wunderground v.1.15,2013-11-13 23:29:00,
2013-11-13 18:30:00,33.6,18.3,30.65,WNW,296,1.0,1.0,53,0.00,,,0.00,Wunderground v.1.15,2013-11-13 23:30:00,
2013-11-13 18:31:00,33.5,18.2,30.65,WNW,296,1.0,12.0,53,0.00,,,0.00,Wunderground v.1.15,2013-11-13 23:31:00,
2013-11-13 18:33:00,33.5,19.0,30.65,WNW,296,1.0,12.0,55,0.00,,,0.00,Wunderground v.1.15,2013-11-13 23:33:00,
2013-11-13 18:35:00,33.5,19.5,30.65,WNW,296,1.0,12.0,56,0.00,,,0.00,Wunderground v.1.15,2013-11-13 23:35:00,
2013-11-13 18:38:00,33.3,19.3,30.65,WNW,296,0.0,12.0,56,0.00,,,0.00,Wunderground v.1.15,2013-11-13 23:38:00,
2013-11-13 18:39:00,33.2,19.2,30.65,WNW,296,0.0,12.0,56,0.00,,,0.00,Wunderground v.1.15,2013-11-13 23:39:00,
2013-11-13 18:41:00,33.0,18.6,30.65,WNW,296,0.0,12.0,55,0.00,,,0.00,Wunderground v.1.15,2013-11-13 23:41:00,
2013-11-13 18:42:00,32.9,18.1,30.65,WNW,296,0.0,12.0,54,0.00,,,0.00,Wunderground v.1.15,2013-11-13 23:42:00,
2013-11-13 18:44:00,32.8,20.8,30.65,WNW,296,0.0,12.0,61,0.00,,,0.00,Wunderground v.1.15,2013-11-13 23:44:00,
2013-11-13 18:48:00,32.7,19.1,30.65,WNW,296,0.0,12.0,57,0.00,,,0.00,Wunderground v.1.15,2013-11-13 23:48:00,
2013-11-13 18:49:00,32.6,19.4,30.65,WNW,296,0.0,12.0,58,0.00,,,0.00,Wunderground v.1.15,2013-11-13 23:49:00,
2013-11-13 18:50:00,32.5,19.3,30.65,WNW,296,0.0,12.0,58,0.00,,,0.00,Wunderground v.1.15,2013-11-13 23:50:00,
2013-11-13 18:53:00,31.8,19.9,30.65,WNW,296,1.0,12.0,61,0.00,,,0.00,Wunderground v.1.15,2013-11-13 23:53:00,
2013-11-13 18:54:00,31.6,19.3,30.65,WNW,296,1.0,12.0,60,0.00,,,0.00,Wunderground v.1.15,2013-11-13 23:54:00,
2013-11-13 18:55:00,31.4,19.5,30.65,WNW,296,1.0,12.0,61,0.00,,,0.00,Wunderground v.1.15,2013-11-13 23:55:00,
2013-11-13 18:56:00,31.1,20.0,30.65,WNW,296,1.0,12.0,63,0.00,,,0.00,Wunderground v.1.15,2013-11-13 23:56:00,
2013-11-13 18:59:00,30.6,19.1,30.65,WNW,296,1.0,12.0,62,0.00,,,0.00,Wunderground v.1.15,2013-11-13 23:59:00,
2013-11-13 19:00:00,30.4,18.5,30.65,WNW,296,1.0,1.0,61,0.00,,,0.00,Wunderground v.1.15,2013-11-14 00:00:00,
2013-11-13 19:03:00,30.2,18.7,30.65,WNW,296,1.0,12.0,62,0.00,,,0.00,Wunderground v.1.15,2013-11-14 00:03:00,
2013-11-13 19:06:00,30.2,19.1,30.65,WNW,296,0.0,12.0,63,0.00,,,0.00,Wunderground v.1.15,2013-11-14 00:06:00,
2013-11-13 19:08:00,30.1,18.6,30.65,WNW,296,0.0,12.0,62,0.00,,,0.00,Wunderground v.1.15,2013-11-14 00:08:00,
2013-11-13 19:10:00,30.1,18.6,30.65,West,278,0.0,12.0,62,0.00,,,0.00,Wunderground v.1.15,2013-11-14 00:10:00,
2013-11-13 19:12:00,30.1,18.6,30.65,West,276,1.0,12.0,62,0.00,,,0.00,Wunderground v.1.15,2013-11-14 00:12:00,
2013-11-13 19:13:00,30.0,19.3,30.65,West,276,1.0,12.0,64,0.00,,,0.00,Wunderground v.1.15,2013-11-14 00:13:00,
2013-11-13 19:15:00,29.9,19.2,30.66,West,271,1.0,12.0,64,0.00,,,0.00,Wunderground v.1.15,2013-11-14 00:15:00,
2013-11-13 19:16:00,29.8,19.1,30.66,West,271,1.0,12.0,64,0.00,,,0.00,Wunderground v.1.15,2013-11-14 00:16:00,
2013-11-13 19:20:00,29.7,18.6,30.66,West,271,2.0,12.0,63,0.00,,,0.00,Wunderground v.1.15,2013-11-14 00:20:00,
2013-11-13 19:21:00,29.6,18.5,30.66,West,271,2.0,12.0,63,0.00,,,0.00,Wunderground v.1.15,2013-11-14 00:21:00,
2013-11-13 19:22:00,29.6,18.5,30.66,West,271,2.0,12.0,63,0.00,,,0.00,Wunderground v.1.15,2013-11-14 00:22:00,
2013-11-13 19:27:00,29.6,18.5,30.65,West,270,2.0,12.0,63,0.00,,,0.00,Wunderground v.1.15,2013-11-14 00:27:00,
2013-11-13 19:28:00,29.6,18.5,30.65,West,270,2.0,12.0,63,0.00,,,0.00,Wunderground v.1.15,2013-11-14 00:28:00,
2013-11-13 19:32:00,29.6,18.5,30.65,West,270,2.0,12.0,63,0.00,,,0.00,Wunderground v.1.15,2013-11-14 00:32:00,
2013-11-13 19:33:00,29.6,18.5,30.65,West,270,1.0,12.0,63,0.00,,,0.00,Wunderground v.1.15,2013-11-14 00:33:00,
2013-11-13 19:34:00,29.6,18.5,30.65,West,270,1.0,12.0,63,0.00,,,0.00,Wunderground v.1.15,2013-11-14 00:34:00,
2013-11-13 19:36:00,29.6,18.5,30.65,West,270,1.0,12.0,63,0.00,,,0.00,Wunderground v.1.15,2013-11-14 00:36:00,
2013-11-13 19:38:00,29.7,19.0,30.65,West,270,1.0,12.0,64,0.00,,,0.00,Wunderground v.1.15,2013-11-14 00:38:00,
2013-11-13 19:39:00,29.6,18.5,30.65,West,270,1.0,12.0,63,0.00,,,0.00,Wunderground v.1.15,2013-11-14 00:39:00,
2013-11-13 19:42:00,29.6,18.9,30.65,West,270,0.0,12.0,64,0.00,,,0.00,Wunderground v.1.15,2013-11-14 00:42:00,
2013-11-13 19:43:00,29.5,18.8,30.65,West,270,0.0,12.0,64,0.00,,,0.00,Wunderground v.1.15,2013-11-14 00:43:00,
2013-11-13 19:46:00,29.2,18.5,30.65,West,270,1.0,12.0,64,0.00,,,0.00,Wunderground v.1.15,2013-11-14 00:46:00,
2013-11-13 19:47:00,29.0,18.0,30.65,West,270,1.0,12.0,63,0.00,,,0.00,Wunderground v.1.15,2013-11-14 00:47:00,
2013-11-13 19:49:00,29.0,18.7,30.65,West,270,1.0,12.0,65,0.00,,,0.00,Wunderground v.1.15,2013-11-14 00:49:00,
2013-11-13 19:50:00,28.9,19.0,30.65,West,270,1.0,12.0,66,0.00,,,0.00,Wunderground v.1.15,2013-11-14 00:50:00,
2013-11-13 19:51:00,28.8,18.9,30.65,West,270,1.0,12.0,66,0.00,,,0.00,Wunderground v.1.15,2013-11-14 00:51:00,
2013-11-13 19:54:00,28.4,19.2,30.65,West,270,1.0,12.0,68,0.00,,,0.00,Wunderground v.1.15,2013-11-14 00:54:00,
2013-11-13 19:56:00,28.1,19.6,30.65,West,270,1.0,12.0,70,0.00,,,0.00,Wunderground v.1.15,2013-11-14 00:56:00,
2013-11-13 19:57:00,28.0,19.5,30.65,West,270,1.0,12.0,70,0.00,,,0.00,Wunderground v.1.15,2013-11-14 00:57:00,
2013-11-13 19:59:00,27.8,19.6,30.65,West,270,0.0,12.0,71,0.00,,,0.00,Wunderground v.1.15,2013-11-14 00:59:00,
2013-11-13 20:00:00,27.7,19.8,30.66,West,270,0.0,12.0,72,0.00,,,0.00,Wunderground v.1.15,2013-11-14 01:00:00,
2013-11-13 20:01:00,27.6,19.8,30.65,West,270,0.0,12.0,72,0.00,,,0.00,Wunderground v.1.15,2013-11-14 01:01:00,
2013-11-13 20:02:00,27.5,19.7,30.65,West,270,0.0,12.0,72,0.00,,,0.00,Wunderground v.1.15,2013-11-14 01:02:00,
2013-11-13 20:03:00,27.5,19.3,30.65,West,270,0.0,12.0,71,0.00,,,0.00,Wunderground v.1.15,2013-11-14 01:03:00,
2013-11-13 20:08:00,27.6,18.8,30.65,West,270,0.0,12.0,69,0.00,,,0.00,Wunderground v.1.15,2013-11-14 01:08:00,
2013-11-13 20:09:00,27.6,18.8,30.65,West,270,0.0,12.0,69,0.00,,,0.00,Wunderground v.1.15,2013-11-14 01:09:00,
2013-11-13 20:11:00,27.6,18.8,30.65,West,270,0.0,12.0,69,0.00,,,0.00,Wunderground v.1.15,2013-11-14 01:11:00,
2013-11-13 20:13:00,27.6,19.4,30.65,West,270,0.0,12.0,71,0.00,,,0.00,Wunderground v.1.15,2013-11-14 01:13:00,
2013-11-13 20:14:00,27.6,19.4,30.65,West,270,0.0,12.0,71,0.00,,,0.00,Wunderground v.1.15,2013-11-14 01:14:00,
2013-11-13 20:16:00,27.5,19.7,30.65,West,270,0.0,12.0,72,0.00,,,0.00,Wunderground v.1.15,2013-11-14 01:16:00,
2013-11-13 20:18:00,27.3,19.5,30.65,West,270,0.0,12.0,72,0.00,,,0.00,Wunderground v.1.15,2013-11-14 01:18:00,
2013-11-13 20:20:00,27.1,19.6,30.66,West,270,0.0,12.0,73,0.00,,,0.00,Wunderground v.1.15,2013-11-14 01:20:00,
2013-11-13 20:22:00,26.9,19.4,30.66,West,270,0.0,12.0,73,0.00,,,0.00,Wunderground v.1.15,2013-11-14 01:22:00,
2013-11-13 20:23:00,26.9,19.4,30.66,West,270,0.0,12.0,73,0.00,,,0.00,Wunderground v.1.15,2013-11-14 01:23:00,
2013-11-13 20:25:00,26.8,19.0,30.66,West,270,0.0,12.0,72,0.00,,,0.00,Wunderground v.1.15,2013-11-14 01:25:00,
2013-11-13 20:28:00,26.8,19.3,30.66,West,270,0.0,12.0,73,0.00,,,0.00,Wunderground v.1.15,2013-11-14 01:28:00,
2013-11-13 20:29:00,26.9,19.7,30.66,West,270,0.0,12.0,74,0.00,,,0.00,Wunderground v.1.15,2013-11-14 01:29:00,
2013-11-13 20:31:00,26.9,19.7,30.66,West,270,0.0,12.0,74,0.00,,,0.00,Wunderground v.1.15,2013-11-14 01:31:00,
2013-11-13 20:34:00,26.9,19.4,30.66,West,270,0.0,12.0,73,0.00,,,0.00,Wunderground v.1.15,2013-11-14 01:34:00,
2013-11-13 20:36:00,26.9,20.0,30.66,West,270,0.0,12.0,75,0.00,,,0.00,Wunderground v.1.15,2013-11-14 01:36:00,
2013-11-13 20:37:00,26.9,20.7,30.66,West,270,0.0,12.0,77,0.00,,,0.00,Wunderground v.1.15,2013-11-14 01:37:00,
2013-11-13 20:38:00,26.9,20.0,30.66,West,270,0.0,12.0,75,0.00,,,0.00,Wunderground v.1.15,2013-11-14 01:38:00,
2013-11-13 20:39:00,26.9,19.7,30.66,West,270,0.0,12.0,74,0.00,,,0.00,Wunderground v.1.15,2013-11-14 01:39:00,
2013-11-13 20:42:00,26.7,18.9,30.66,West,270,0.0,12.0,72,0.00,,,0.00,Wunderground v.1.15,2013-11-14 01:42:00,
2013-11-13 20:43:00,26.7,18.9,30.66,West,270,0.0,12.0,72,0.00,,,0.00,Wunderground v.1.15,2013-11-14 01:43:00,
2013-11-13 20:45:00,26.7,18.9,30.66,West,270,0.0,12.0,72,0.00,,,0.00,Wunderground v.1.15,2013-11-14 01:45:00,
2013-11-13 20:48:00,26.7,18.9,30.66,West,270,0.0,12.0,72,0.00,,,0.00,Wunderground v.1.15,2013-11-14 01:48:00,
2013-11-13 20:49:00,26.7,18.9,30.66,West,270,0.0,12.0,72,0.00,,,0.00,Wunderground v.1.15,2013-11-14 01:49:00,
2013-11-13 20:51:00,26.7,18.9,30.66,West,270,0.0,12.0,72,0.00,,,0.00,Wunderground v.1.15,2013-11-14 01:51:00,
2013-11-13 20:53:00,26.6,18.8,30.66,West,270,0.0,12.0,72,0.00,,,0.00,Wunderground v.1.15,2013-11-14 01:53:00,
2013-11-13 20:54:00,26.6,18.8,30.66,West,270,0.0,12.0,72,0.00,,,0.00,Wunderground v.1.15,2013-11-14 01:54:00,
2013-11-13 20:55:00,26.6,19.1,30.66,West,270,0.0,12.0,73,0.00,,,0.00,Wunderground v.1.15,2013-11-14 01:55:00,
2013-11-13 20:57:00,26.6,19.1,30.66,West,270,0.0,12.0,73,0.00,,,0.00,Wunderground v.1.15,2013-11-14 01:57:00,
2013-11-13 20:59:00,26.6,19.1,30.66,West,270,0.0,12.0,73,0.00,,,0.00,Wunderground v.1.15,2013-11-14 01:59:00,
2013-11-13 21:02:00,26.5,18.7,30.66,West,270,1.0,12.0,72,0.00,,,0.00,Wunderground v.1.15,2013-11-14 02:02:00,
2013-11-13 21:07:00,26.5,18.7,30.66,West,270,0.0,12.0,72,0.00,,,0.00,Wunderground v.1.15,2013-11-14 02:07:00,
2013-11-13 21:08:00,26.5,18.7,30.66,West,270,0.0,12.0,72,0.00,,,0.00,Wunderground v.1.15,2013-11-14 02:08:00,
2013-11-13 21:09:00,26.4,18.6,30.66,West,270,0.0,12.0,72,0.00,,,0.00,Wunderground v.1.15,2013-11-14 02:09:00,
2013-11-13 21:10:00,26.4,18.6,30.66,West,270,0.0,12.0,72,0.00,,,0.00,Wunderground v.1.15,2013-11-14 02:10:00,
2013-11-13 21:13:00,26.3,19.5,30.66,West,270,0.0,12.0,75,0.00,,,0.00,Wunderground v.1.15,2013-11-14 02:13:00,
2013-11-13 21:15:00,26.3,19.1,30.66,West,270,0.0,12.0,74,0.00,,,0.00,Wunderground v.1.15,2013-11-14 02:15:00,
2013-11-13 21:16:00,26.3,18.8,30.66,West,270,0.0,12.0,73,0.00,,,0.00,Wunderground v.1.15,2013-11-14 02:16:00,
2013-11-13 21:17:00,26.4,18.9,30.66,West,270,0.0,12.0,73,0.00,,,0.00,Wunderground v.1.15,2013-11-14 02:17:00,
2013-11-13 21:19:00,26.5,20.0,30.66,West,270,1.0,12.0,76,0.00,,,0.00,Wunderground v.1.15,2013-11-14 02:19:00,
2013-11-13 21:21:00,26.3,19.5,30.66,West,270,1.0,12.0,75,0.00,,,0.00,Wunderground v.1.15,2013-11-14 02:21:00,
2013-11-13 21:25:00,26.0,18.8,30.66,West,270,1.0,12.0,74,0.00,,,0.00,Wunderground v.1.15,2013-11-14 02:25:00,
2013-11-13 21:26:00,25.8,18.7,30.66,West,270,0.0,12.0,74,0.00,,,0.00,Wunderground v.1.15,2013-11-14 02:26:00,
2013-11-13 21:27:00,25.6,18.8,30.66,West,270,0.0,12.0,75,0.00,,,0.00,Wunderground v.1.15,2013-11-14 02:27:00,
2013-11-13 21:28:00,25.5,19.0,30.66,West,270,0.0,12.0,76,0.00,,,0.00,Wunderground v.1.15,2013-11-14 02:28:00,
2013-11-13 21:29:00,25.4,18.9,30.66,West,270,0.0,12.0,76,0.00,,,0.00,Wunderground v.1.15,2013-11-14 02:29:00,
2013-11-13 21:31:00,25.2,18.7,30.66,West,270,0.0,12.0,76,0.00,,,0.00,Wunderground v.1.15,2013-11-14 02:31:00,
2013-11-13 21:32:00,25.1,18.6,30.66,West,270,0.0,12.0,76,0.00,,,0.00,Wunderground v.1.15,2013-11-14 02:32:00,
2013-11-13 21:36:00,24.9,18.7,30.66,West,270,0.0,12.0,77,0.00,,,0.00,Wunderground v.1.15,2013-11-14 02:36:00,
2013-11-13 21:37:00,24.9,18.7,30.66,West,270,0.0,12.0,77,0.00,,,0.00,Wunderground v.1.15,2013-11-14 02:37:00,
2013-11-13 21:41:00,24.8,18.9,30.66,West,270,1.0,12.0,78,0.00,,,0.00,Wunderground v.1.15,2013-11-14 02:41:00,
2013-11-13 21:42:00,24.8,19.2,30.66,West,270,1.0,12.0,79,0.00,,,0.00,Wunderground v.1.15,2013-11-14 02:42:00,
2013-11-13 21:43:00,24.7,19.1,30.66,West,270,1.0,12.0,79,0.00,,,0.00,Wunderground v.1.15,2013-11-14 02:43:00,
2013-11-13 21:44:00,24.7,19.1,30.66,West,270,1.0,12.0,79,0.00,,,0.00,Wunderground v.1.15,2013-11-14 02:44:00,
2013-11-13 21:45:00,24.6,19.0,30.67,West,270,1.0,12.0,79,0.00,,,0.00,Wunderground v.1.15,2013-11-14 02:45:00,
2013-11-13 21:47:00,24.5,18.9,30.66,West,270,1.0,12.0,79,0.00,,,0.00,Wunderground v.1.15,2013-11-14 02:47:00,
2013-11-13 21:50:00,24.5,18.9,30.66,West,270,1.0,1.0,79,0.00,,,0.00,Wunderground v.1.15,2013-11-14 02:50:00,
2013-11-13 21:52:00,24.5,18.9,30.66,West,270,0.0,12.0,79,0.00,,,0.00,Wunderground v.1.15,2013-11-14 02:52:00,
2013-11-13 21:54:00,24.6,19.3,30.66,West,270,0.0,12.0,80,0.00,,,0.00,Wunderground v.1.15,2013-11-14 02:54:00,
2013-11-13 21:55:00,24.5,19.2,30.66,West,270,0.0,12.0,80,0.00,,,0.00,Wunderground v.1.15,2013-11-14 02:55:00,
2013-11-13 21:59:00,24.3,19.3,30.66,West,270,0.0,12.0,81,0.00,,,0.00,Wunderground v.1.15,2013-11-14 02:59:00,
2013-11-13 22:00:00,24.3,19.3,30.66,West,270,0.0,12.0,81,0.00,,,0.00,Wunderground v.1.15,2013-11-14 03:00:00,
2013-11-13 22:01:00,24.3,19.3,30.66,West,270,0.0,12.0,81,0.00,,,0.00,Wunderground v.1.15,2013-11-14 03:01:00,
2013-11-13 22:03:00,24.3,19.0,30.66,West,270,0.0,12.0,80,0.00,,,0.00,Wunderground v.1.15,2013-11-14 03:03:00,
2013-11-13 22:04:00,24.3,19.0,30.66,West,270,0.0,12.0,80,0.00,,,0.00,Wunderground v.1.15,2013-11-14 03:04:00,
2013-11-13 22:07:00,24.1,18.8,30.66,West,270,0.0,12.0,80,0.00,,,0.00,Wunderground v.1.15,2013-11-14 03:07:00,
2013-11-13 22:09:00,24.0,19.0,30.66,West,270,0.0,12.0,81,0.00,,,0.00,Wunderground v.1.15,2013-11-14 03:09:00,
2013-11-13 22:10:00,24.1,19.7,30.66,West,270,0.0,12.0,83,0.00,,,0.00,Wunderground v.1.15,2013-11-14 03:10:00,
2013-11-13 22:13:00,24.2,19.5,30.66,West,270,0.0,12.0,82,0.00,,,0.00,Wunderground v.1.15,2013-11-14 03:13:00,
2013-11-13 22:14:00,24.1,19.4,30.66,West,270,0.0,12.0,82,0.00,,,0.00,Wunderground v.1.15,2013-11-14 03:14:00,
2013-11-13 22:17:00,24.0,19.0,30.66,West,270,0.0,12.0,81,0.00,,,0.00,Wunderground v.1.15,2013-11-14 03:17:00,
2013-11-13 22:18:00,24.0,19.0,30.65,West,270,0.0,12.0,81,0.00,,,0.00,Wunderground v.1.15,2013-11-14 03:18:00,
2013-11-13 22:21:00,24.0,19.0,30.65,West,270,0.0,12.0,81,0.00,,,0.00,Wunderground v.1.15,2013-11-14 03:21:00,
2013-11-13 22:24:00,24.2,18.9,30.65,West,270,1.0,12.0,80,0.00,,,0.00,Wunderground v.1.15,2013-11-14 03:24:00,
2013-11-13 22:26:00,24.2,18.9,30.65,West,270,1.0,12.0,80,0.00,,,0.00,Wunderground v.1.15,2013-11-14 03:26:00,
2013-11-13 22:27:00,24.2,19.2,30.65,West,270,1.0,12.0,81,0.00,,,0.00,Wunderground v.1.15,2013-11-14 03:27:00,
2013-11-13 22:29:00,24.2,18.9,30.65,West,270,1.0,12.0,80,0.00,,,0.00,Wunderground v.1.15,2013-11-14 03:29:00,
2013-11-13 22:30:00,24.1,18.8,30.65,West,270,1.0,1.0,80,0.00,,,0.00,Wunderground v.1.15,2013-11-14 03:30:00,
2013-11-13 22:34:00,23.9,18.9,30.65,West,270,0.0,12.0,81,0.00,,,0.00,Wunderground v.1.15,2013-11-14 03:34:00,
2013-11-13 22:35:00,23.9,18.9,30.65,West,270,0.0,12.0,81,0.00,,,0.00,Wunderground v.1.15,2013-11-14 03:35:00,
2013-11-13 22:36:00,23.9,18.9,30.65,West,270,0.0,12.0,81,0.00,,,0.00,Wunderground v.1.15,2013-11-14 03:36:00,
2013-11-13 22:38:00,23.9,19.5,30.65,West,270,0.0,12.0,83,0.00,,,0.00,Wunderground v.1.15,2013-11-14 03:38:00,
2013-11-13 22:40:00,23.9,19.2,30.65,West,270,0.0,12.0,82,0.00,,,0.00,Wunderground v.1.15,2013-11-14 03:40:00,
2013-11-13 22:41:00,23.9,19.2,30.65,West,270,0.0,12.0,82,0.00,,,0.00,Wunderground v.1.15,2013-11-14 03:41:00,
2013-11-13 22:43:00,23.8,18.8,30.65,West,270,0.0,12.0,81,0.00,,,0.00,Wunderground v.1.15,2013-11-14 03:43:00,
2013-11-13 22:44:00,23.8,18.8,30.65,West,270,0.0,12.0,81,0.00,,,0.00,Wunderground v.1.15,2013-11-14 03:44:00,
2013-11-13 22:46:00,23.6,18.6,30.65,West,270,0.0,12.0,81,0.00,,,0.00,Wunderground v.1.15,2013-11-14 03:46:00,
2013-11-13 22:47:00,23.6,18.6,30.65,West,270,0.0,12.0,81,0.00,,,0.00,Wunderground v.1.15,2013-11-14 03:47:00,
2013-11-13 22:50:00,23.3,18.6,30.65,West,270,1.0,1.0,82,0.00,,,0.00,Wunderground v.1.15,2013-11-14 03:50:00,
2013-11-13 22:51:00,23.3,18.6,30.65,West,270,1.0,2.0,82,0.00,,,0.00,Wunderground v.1.15,2013-11-14 03:51:00,
2013-11-13 22:52:00,23.3,18.6,30.65,West,270,1.0,12.0,82,0.00,,,0.00,Wunderground v.1.15,2013-11-14 03:52:00,
2013-11-13 22:54:00,23.2,18.5,30.65,West,270,1.0,12.0,82,0.00,,,0.00,Wunderground v.1.15,2013-11-14 03:54:00,
2013-11-13 22:55:00,23.3,18.6,30.65,West,270,1.0,12.0,82,0.00,,,0.00,Wunderground v.1.15,2013-11-14 03:55:00,
2013-11-13 22:58:00,23.3,18.6,30.65,West,270,1.0,12.0,82,0.00,,,0.00,Wunderground v.1.15,2013-11-14 03:58:00,
2013-11-13 23:00:00,23.5,19.1,30.65,West,270,1.0,1.0,83,0.00,,,0.00,Wunderground v.1.15,2013-11-14 04:00:00,
2013-11-13 23:02:00,23.6,19.2,30.65,West,270,1.0,1.0,83,0.00,,,0.00,Wunderground v.1.15,2013-11-14 04:02:00,
2013-11-13 23:04:00,23.6,18.9,30.65,West,270,1.0,1.0,82,0.00,,,0.00,Wunderground v.1.15,2013-11-14 04:04:00,
2013-11-13 23:06:00,23.6,18.9,30.65,West,270,1.0,1.0,82,0.00,,,0.00,Wunderground v.1.15,2013-11-14 04:06:00,
2013-11-13 23:08:00,23.5,18.8,30.65,West,269,0.0,2.0,82,0.00,,,0.00,Wunderground v.1.15,2013-11-14 04:08:00,
2013-11-13 23:10:00,23.2,18.5,30.65,West,269,1.0,1.0,82,0.00,,,0.00,Wunderground v.1.15,2013-11-14 04:10:00,
2013-11-13 23:12:00,22.8,18.1,30.65,West,269,1.0,1.0,82,0.00,,,0.00,Wunderground v.1.15,2013-11-14 04:12:00,
2013-11-13 23:13:00,22.7,18.0,30.65,West,269,1.0,2.0,82,0.00,,,0.00,Wunderground v.1.15,2013-11-14 04:13:00,
2013-11-13 23:14:00,22.5,18.1,30.65,West,275,1.0,4.0,83,0.00,,,0.00,Wunderground v.1.15,2013-11-14 04:14:00,
2013-11-13 23:17:00,22.3,18.2,30.65,NW,309,2.0,4.0,84,0.00,,,0.00,Wunderground v.1.15,2013-11-14 04:17:00,
2013-11-13 23:19:00,22.3,18.2,30.65,NW,309,2.0,4.0,84,0.00,,,0.00,Wunderground v.1.15,2013-11-14 04:19:00,
2013-11-13 23:20:00,22.3,18.2,30.65,NW,309,1.0,1.0,84,0.00,,,0.00,Wunderground v.1.15,2013-11-14 04:20:00,
2013-11-13 23:21:00,22.3,18.5,30.65,NW,309,1.0,1.0,85,0.00,,,0.00,Wunderground v.1.15,2013-11-14 04:21:00,
2013-11-13 23:25:00,22.2,18.4,30.65,WSW,254,1.0,2.0,85,0.00,,,0.00,Wunderground v.1.15,2013-11-14 04:25:00,
2013-11-13 23:26:00,22.1,18.3,30.65,WSW,254,1.0,2.0,85,0.00,,,0.00,Wunderground v.1.15,2013-11-14 04:26:00,
2013-11-13 23:27:00,22.1,18.0,30.65,WSW,254,1.0,2.0,84,0.00,,,0.00,Wunderground v.1.15,2013-11-14 04:27:00,
2013-11-13 23:29:00,22.1,18.3,30.65,WSW,254,0.0,2.0,85,0.00,,,0.00,Wunderground v.1.15,2013-11-14 04:29:00,
2013-11-13 23:30:00,22.0,18.2,30.64,WSW,254,0.0,1.0,85,0.00,,,0.00,Wunderground v.1.15,2013-11-14 04:30:00,
2013-11-13 23:32:00,22.1,18.3,30.64,WSW,254,0.0,2.0,85,0.00,,,0.00,Wunderground v.1.15,2013-11-14 04:32:00,
2013-11-13 23:34:00,22.1,18.6,30.64,WSW,254,0.0,2.0,86,0.00,,,0.00,Wunderground v.1.15,2013-11-14 04:34:00,
2013-11-13 23:35:00,22.2,18.7,30.64,WSW,254,0.0,2.0,86,0.00,,,0.00,Wunderground v.1.15,2013-11-14 04:35:00,
2013-11-13 23:37:00,22.3,18.7,30.64,WSW,254,0.0,2.0,86,0.00,,,0.00,Wunderground v.1.15,2013-11-14 04:37:00,
2013-11-13 23:39:00,22.4,18.8,30.64,WSW,254,0.0,2.0,86,0.00,,,0.00,Wunderground v.1.15,2013-11-14 04:39:00,
2013-11-13 23:40:00,22.5,19.2,30.64,WSW,254,0.0,2.0,87,0.00,,,0.00,Wunderground v.1.15,2013-11-14 04:40:00,
2013-11-13 23:41:00,22.5,19.2,30.64,WSW,254,0.0,2.0,87,0.00,,,0.00,Wunderground v.1.15,2013-11-14 04:41:00,
2013-11-13 23:45:00,22.4,18.6,30.64,WSW,254,0.0,2.0,85,0.00,,,0.00,Wunderground v.1.15,2013-11-14 04:45:00,
2013-11-13 23:46:00,22.4,18.6,30.64,WSW,254,0.0,2.0,85,0.00,,,0.00,Wunderground v.1.15,2013-11-14 04:46:00,
2013-11-13 23:47:00,22.3,18.5,30.64,WSW,254,0.0,2.0,85,0.00,,,0.00,Wunderground v.1.15,2013-11-14 04:47:00,
2013-11-13 23:48:00,22.3,18.2,30.64,WSW,254,0.0,2.0,84,0.00,,,0.00,Wunderground v.1.15,2013-11-14 04:48:00,
2013-11-13 23:50:00,22.4,19.1,30.64,WSW,254,0.0,2.0,87,0.00,,,0.00,Wunderground v.1.15,2013-11-14 04:50:00,
2013-11-13 23:51:00,22.4,19.4,30.64,WSW,254,0.0,2.0,88,0.00,,,0.00,Wunderground v.1.15,2013-11-14 04:51:00,
2013-11-13 23:52:00,22.4,19.1,30.64,WSW,254,0.0,2.0,87,0.00,,,0.00,Wunderground v.1.15,2013-11-14 04:52:00,
2013-11-13 23:53:00,22.5,19.2,30.64,WSW,254,0.0,2.0,87,0.00,,,0.00,Wunderground v.1.15,2013-11-14 04:53:00,
2013-11-13 23:55:00,22.5,19.5,30.64,WSW,254,0.0,2.0,88,0.00,,,0.00,Wunderground v.1.15,2013-11-14 04:55:00,
2013-11-13 23:56:00,22.5,18.9,30.64,WSW,254,0.0,2.0,86,0.00,,,0.00,Wunderground v.1.15,2013-11-14 04:56:00,
2013-11-13 23:57:00,22.5,18.9,30.64,WSW,254,0.0,2.0,86,0.00,,,0.00,Wunderground v.1.15,2013-11-14 04:57:00,
2013-11-13 23:58:00,22.5,18.7,30.64,WSW,254,0.0,2.0,85,0.00,,,0.00,Wunderground v.1.15,2013-11-14 04:58:00,